Observation data for Doole 3WNW on 04/16/2021      Previous  Date  Next       Current Mesonet Observations  Soil Data  Daily Summary Page  Observations in Plain Language
KDO2 160500Z 11003KT 14/14 A2988 RMK A01 T01430136  RH  095%=      5-min Rain = 0
KDO2 160501Z 10002KT 14/14 A2988 RMK A01 T01430136  RH  095%=      5-min Rain = 0
KDO2 160502Z 10002KT 14/14 A2988 RMK A01 T01430136  RH  095%=      5-min Rain = 0
KDO2 160503Z 09002KT 14/14 A2987 RMK A01 T01430136  RH  095%=      5-min Rain = 0
KDO2 160504Z 10003KT 14/14 A2987 RMK A01 T01430136  RH  095%=      5-min Rain = 0
KDO2 160505Z 11002KT 14/14 A2988 RMK A01 T01430136  RH  095%=      5-min Rain = 0
KDO2 160506Z 10002KT 14/14 A2988 RMK A01 T01430136  RH  095%=      5-min Rain = 0
KDO2 160507Z 11001KT 14/14 A2988 RMK A01 T01430136  RH  095%=      5-min Rain = 0
KDO2 160508Z 03001KT 14/14 A2988 RMK A01 T01440136  RH  095%=      5-min Rain = 0
KDO2 160509Z 04002KT 14/14 A2988 RMK A01 T01440136  RH  095%=      5-min Rain = 0
KDO2 160510Z 04003KT 14/14 A2988 RMK A01 T01440136  RH  095%=      5-min Rain = 0
KDO2 160511Z 04003KT 14/14 A2988 RMK A01 T01440136  RH  095%=      5-min Rain = 0
KDO2 160512Z 05003KT 14/14 A2988 RMK A01 T01440136  RH  095%=      5-min Rain = 0
KDO2 160513Z 05004KT 14/14 A2988 RMK A01 T01440136  RH  095%=      5-min Rain = 0
KDO2 160514Z 07004KT 14/14 A2987 RMK A01 T01440136  RH  095%=      5-min Rain = 0
KDO2 160515Z 07004KT 14/14 A2987 RMK A01 T01440136  RH  095%=      5-min Rain = 0
KDO2 160516Z 07004KT 14/14 A2987 RMK A01 T01440136  RH  095%=      5-min Rain = 0
KDO2 160517Z 07005KT 14/14 A2987 RMK A01 T01440136  RH  095%=      5-min Rain = 0
KDO2 160518Z 09005KT 14/14 A2987 RMK A01 T01440136  RH  095%=      5-min Rain = 0
KDO2 160519Z 09005KT 14/14 A2987 RMK A01 T01440137  RH  095%=      5-min Rain = 0
KDO2 160520Z 09006KT 14/14 A2986 RMK A01 T01440136  RH  095%=      5-min Rain = 0
KDO2 160521Z 09006KT 14/14 A2986 RMK A01 T01440136  RH  095%=      5-min Rain = 0
KDO2 160522Z 09007KT 14/14 A2986 RMK A01 T01440136  RH  095%=      5-min Rain = 0
KDO2 160523Z 10008KT 14/14 A2985 RMK A01 T01440136  RH  095%=      5-min Rain = 0
KDO2 160524Z 10008KT 14/14 A2985 RMK A01 T01440136  RH  095%=      5-min Rain = 0
KDO2 160525Z 11008KT 14/14 A2985 RMK A01 T01440136  RH  095%=      5-min Rain = 0
KDO2 160526Z 10007KT 14/14 A2985 RMK A01 T01430136  RH  095%=      5-min Rain = 0
KDO2 160527Z 10006KT 14/14 A2985 RMK A01 T01430136  RH  095%=      5-min Rain = 0
KDO2 160528Z 09005KT 14/14 A2985 RMK A01 T01430136  RH  095%=      5-min Rain = 0
KDO2 160529Z 09005KT 14/14 A2986 RMK A01 T01430136  RH  095%=      5-min Rain = 0
KDO2 160530Z 08003KT 14/14 A2986 RMK A01 T01430136  RH  095%=      5-min Rain = 0
KDO2 160531Z 08003KT 14/14 A2986 RMK A01 T01430136  RH  096%=      5-min Rain = 0
KDO2 160532Z 07004KT 14/14 A2986 RMK A01 T01430136  RH  096%=      5-min Rain = 0
KDO2 160533Z 07004KT 14/14 A2987 RMK A01 T01430136  RH  096%=      5-min Rain = 0
KDO2 160534Z 08004KT 14/14 A2987 RMK A01 T01440136  RH  095%=      5-min Rain = 0
KDO2 160535Z 08004KT 14/14 A2987 RMK A01 T01430136  RH  095%=      5-min Rain = 0
KDO2 160536Z 07003KT 14/14 A2987 RMK A01 T01430136  RH  095%=      5-min Rain = 0
KDO2 160537Z 07003KT 14/14 A2987 RMK A01 T01440136  RH  095%=      5-min Rain = 0
KDO2 160538Z 07004KT 14/14 A2987 RMK A01 T01440137  RH  095%=      5-min Rain = 0
KDO2 160539Z 08004KT 14/14 A2986 RMK A01 T01440136  RH  095%=      5-min Rain = 0
KDO2 160540Z 07005KT 14/14 A2986 RMK A01 T01440136  RH  095%=      5-min Rain = 0
KDO2 160541Z 07005KT 14/14 A2986 RMK A01 T01440136  RH  095%=      5-min Rain = 0
KDO2 160542Z 07005KT 14/14 A2986 RMK A01 T01440137  RH  095%=      5-min Rain = 0
KDO2 160543Z 07006KT 14/14 A2986 RMK A01 T01440137  RH  095%=      5-min Rain = 0
KDO2 160544Z 07006KT 14/14 A2986 RMK A01 T01440137  RH  095%=      5-min Rain = 0
KDO2 160545Z 07006KT 14/14 A2986 RMK A01 T01440137  RH  095%=      5-min Rain = 0
KDO2 160546Z 07006KT 14/14 A2986 RMK A01 T01440137  RH  096%=      5-min Rain = 0
KDO2 160547Z 07006KT 14/14 A2986 RMK A01 T01440137  RH  096%=      5-min Rain = 0
KDO2 160548Z 07006KT 14/14 A2986 RMK A01 T01430136  RH  096%=      5-min Rain = 0
KDO2 160549Z 08006KT 14/14 A2986 RMK A01 T01430136  RH  096%=      5-min Rain = 0
KDO2 160550Z 07005KT 14/14 A2986 RMK A01 T01430136  RH  096%=      5-min Rain = 0
KDO2 160551Z 07005KT 14/14 A2986 RMK A01 T01430137  RH  096%=      5-min Rain = 0
KDO2 160552Z 07005KT 14/14 A2986 RMK A01 T01430137  RH  096%=      5-min Rain = 0
KDO2 160553Z 07005KT 14/14 A2986 RMK A01 T01430136  RH  096%=      5-min Rain = 0
KDO2 160554Z 07005KT 14/14 A2986 RMK A01 T01430137  RH  096%=      5-min Rain = 0
KDO2 160555Z 07005KT 14/14 A2986 RMK A01 T01430137  RH  096%=      5-min Rain = 0
KDO2 160556Z 06005KT 14/14 A2986 RMK A01 T01430137  RH  096%=      5-min Rain = 0
KDO2 160557Z 07006KT 14/14 A2986 RMK A01 T01430137  RH  096%=      5-min Rain = 0
KDO2 160558Z 07005KT 14/14 A2986 RMK A01 T01430137  RH  096%=      5-min Rain = 0
KDO2 160559Z 07006KT 14/14 A2986 RMK A01 T01430137  RH  096%=      5-min Rain = 0
KDO2 160600Z 07007KT 14/14 A2986 RMK A01 T01430137  RH  096%=      5-min Rain = 0
KDO2 160601Z 07007KT 14/14 A2986 RMK A01 T01430137  RH  096%=      5-min Rain = 0
KDO2 160602Z 07007KT 14/14 A2986 RMK A01 T01430137  RH  096%=      5-min Rain = 0
KDO2 160603Z 07006KT 14/14 A2986 RMK A01 T01430137  RH  096%=      5-min Rain = 0
KDO2 160604Z 07006KT 14/14 A2986 RMK A01 T01430137  RH  096%=      5-min Rain = 0
KDO2 160605Z 07006KT 14/14 A2986 RMK A01 T01430137  RH  096%=      5-min Rain = 0
KDO2 160606Z 07006KT 14/14 A2986 RMK A01 T01430137  RH  096%=      5-min Rain = 0
KDO2 160607Z 08007KT 14/14 A2985 RMK A01 T01430137  RH  096%=      5-min Rain = 0
KDO2 160608Z 08007KT 14/14 A2985 RMK A01 T01430137  RH  096%=      5-min Rain = 0
KDO2 160609Z 08007KT 14/14 A2985 RMK A01 T01430137  RH  096%=      5-min Rain = 0
KDO2 160610Z 08008KT 14/14 A2985 RMK A01 T01430137  RH  096%=      5-min Rain = 0
KDO2 160611Z 08008KT 14/14 A2985 RMK A01 T01430137  RH  096%=      5-min Rain = 0
KDO2 160612Z 08008KT 14/14 A2984 RMK A01 T01430137  RH  096%=      5-min Rain = 0
KDO2 160613Z 08008KT 14/14 A2984 RMK A01 T01430137  RH  096%=      5-min Rain = 0
KDO2 160614Z 08007KT 14/14 A2984 RMK A01 T01430137  RH  096%=      5-min Rain = 0
KDO2 160615Z 09008KT 14/14 A2984 RMK A01 T01430137  RH  096%=      5-min Rain = 0
KDO2 160616Z 09007KT 14/14 A2984 RMK A01 T01430137  RH  096%=      5-min Rain = 0
KDO2 160617Z 09008KT 14/14 A2984 RMK A01 T01430137  RH  096%=      5-min Rain = 0
KDO2 160618Z 09009KT 14/14 A2984 RMK A01 T01430137  RH  097%=      5-min Rain = 0
KDO2 160619Z 09008KT 14/14 A2984 RMK A01 T01420137  RH  097%=      5-min Rain = 0
KDO2 160620Z 09007KT 14/14 A2984 RMK A01 T01430137  RH  097%=      5-min Rain = 0
KDO2 160621Z 09008KT 14/14 A2984 RMK A01 T01420137  RH  097%=      5-min Rain = 0
KDO2 160622Z 09008KT 14/14 A2984 RMK A01 T01420137  RH  097%=      5-min Rain = 0
KDO2 160623Z 09009KT 14/14 A2984 RMK A01 T01430137  RH  097%=      5-min Rain = 0
KDO2 160624Z 09008KT 14/14 A2984 RMK A01 T01420137  RH  097%=      5-min Rain = 0
KDO2 160625Z 09008KT 14/14 A2984 RMK A01 T01420137  RH  097%=      5-min Rain = 0
KDO2 160626Z 09008KT 14/14 A2984 RMK A01 T01430138  RH  097%=      5-min Rain = 0
KDO2 160627Z 10009KT 14/14 A2984 RMK A01 T01420137  RH  097%=      5-min Rain = 0
KDO2 160628Z 10008KT 14/14 A2984 RMK A01 T01420138  RH  097%=      5-min Rain = 0
KDO2 160629Z 10008KT 14/14 A2984 RMK A01 T01420138  RH  097%=      5-min Rain = 0
KDO2 160630Z 10008KT 14/14 A2984 RMK A01 T01430138  RH  097%=      5-min Rain = 0
KDO2 160631Z 10007KT 14/14 A2984 RMK A01 T01420138  RH  097%=      5-min Rain = 0
KDO2 160632Z 10006KT 14/14 A2984 RMK A01 T01420138  RH  097%=      5-min Rain = 0
KDO2 160633Z 10007KT 14/14 A2984 RMK A01 T01420138  RH  097%=      5-min Rain = 0
KDO2 160634Z 10007KT 14/14 A2984 RMK A01 T01420138  RH  097%=      5-min Rain = 0
KDO2 160635Z 10007KT 14/14 A2983 RMK A01 T01420138  RH  097%=      5-min Rain = 0
KDO2 160636Z 10007KT 14/14 A2984 RMK A01 T01430138  RH  097%=      5-min Rain = 0
KDO2 160637Z 10007KT 14/14 A2984 RMK A01 T01430138  RH  097%=      5-min Rain = 0
KDO2 160638Z 11007KT 14/14 A2984 RMK A01 T01430138  RH  097%=      5-min Rain = 0
KDO2 160639Z 11006KT 14/14 A2984 RMK A01 T01420138  RH  097%=      5-min Rain = 0
KDO2 160640Z 10006KT 14/14 A2984 RMK A01 T01430138  RH  097%=      5-min Rain = 0
KDO2 160641Z 10005KT 14/14 A2984 RMK A01 T01420138  RH  097%=      5-min Rain = 0
KDO2 160642Z 10006KT 14/14 A2984 RMK A01 T01420138  RH  097%=      5-min Rain = 0
KDO2 160643Z 09006KT 14/14 A2984 RMK A01 T01430139  RH  097%=      5-min Rain = 0
KDO2 160644Z 10007KT 14/14 A2984 RMK A01 T01430139  RH  097%=      5-min Rain = 0
KDO2 160645Z 10007KT 14/14 A2984 RMK A01 T01430139  RH  097%=      5-min Rain = 0
KDO2 160646Z 10006KT 14/14 A2984 RMK A01 T01430139  RH  097%=      5-min Rain = 0
KDO2 160647Z 10007KT 14/14 A2984 RMK A01 T01430139  RH  097%=      5-min Rain = 0
KDO2 160648Z 10006KT 14/14 A2984 RMK A01 T01430139  RH  097%=      5-min Rain = 0
KDO2 160649Z 10006KT 14/14 A2984 RMK A01 T01430139  RH  097%=      5-min Rain = 0
KDO2 160650Z 10006KT 14/14 A2984 RMK A01 T01430139  RH  098%=      5-min Rain = 0
KDO2 160651Z 10006KT 14/14 A2984 RMK A01 T01430139  RH  098%=      5-min Rain = 0
KDO2 160652Z 09006KT 14/14 A2984 RMK A01 T01430139  RH  098%=      5-min Rain = 0
KDO2 160653Z 10006KT 14/14 A2984 RMK A01 T01430139  RH  098%=      5-min Rain = 0
KDO2 160654Z 10006KT 14/14 A2984 RMK A01 T01430139  RH  098%=      5-min Rain = 0
KDO2 160655Z 10006KT 14/14 A2984 RMK A01 T01430139  RH  098%=      5-min Rain = 0
KDO2 160656Z 10006KT 14/14 A2984 RMK A01 T01430139  RH  098%=      5-min Rain = 0
KDO2 160657Z 10006KT 14/14 A2984 RMK A01 T01430139  RH  098%=      5-min Rain = 0
KDO2 160658Z 10005KT 14/14 A2984 RMK A01 T01430139  RH  098%=      5-min Rain = 0
KDO2 160659Z 10005KT 14/14 A2984 RMK A01 T01430139  RH  098%=      5-min Rain = 0
KDO2 160700Z 09006KT 14/14 A2984 RMK A01 T01430139  RH  098%=      5-min Rain = 0
KDO2 160701Z 10005KT 14/14 A2984 RMK A01 T01430140  RH  098%=      5-min Rain = 0
KDO2 160702Z 10006KT 14/14 A2984 RMK A01 T01430139  RH  098%=      5-min Rain = 0
KDO2 160703Z 10006KT 14/14 A2983 RMK A01 T01430139  RH  098%=      5-min Rain = 0
KDO2 160704Z 10007KT 14/14 A2983 RMK A01 T01430139  RH  098%=      5-min Rain = 0
KDO2 160705Z 10006KT 14/14 A2983 RMK A01 T01430140  RH  098%=      5-min Rain = 0
KDO2 160706Z 10006KT 14/14 A2983 RMK A01 T01430140  RH  098%=      5-min Rain = 0
KDO2 160707Z 10005KT 14/14 A2983 RMK A01 T01430139  RH  098%=      5-min Rain = 0
KDO2 160708Z 10005KT 14/14 A2983 RMK A01 T01430139  RH  098%=      5-min Rain = 0
KDO2 160709Z 10006KT 14/14 A2983 RMK A01 T01430139  RH  098%=      5-min Rain = 0
KDO2 160710Z 10005KT 14/14 A2983 RMK A01 T01430139  RH  098%=      5-min Rain = 0
KDO2 160711Z 10005KT 14/14 A2983 RMK A01 T01430139  RH  098%=      5-min Rain = 0
KDO2 160712Z 09005KT 14/14 A2983 RMK A01 T01430139  RH  098%=      5-min Rain = 0
KDO2 160713Z 09006KT 14/14 A2983 RMK A01 T01430140  RH  098%=      5-min Rain = 0
KDO2 160714Z 10006KT 14/14 A2983 RMK A01 T01430139  RH  098%=      5-min Rain = 0
KDO2 160715Z 10006KT 14/14 A2983 RMK A01 T01430140  RH  098%=      5-min Rain = 0
KDO2 160716Z 10006KT 14/14 A2983 RMK A01 T01430140  RH  098%=      5-min Rain = 0
KDO2 160717Z 10006KT 14/14 A2983 RMK A01 T01430140  RH  098%=      5-min Rain = 0
KDO2 160718Z 09006KT 14/14 A2983 RMK A01 T01430140  RH  098%=      5-min Rain = 0
KDO2 160719Z 09007KT 14/14 A2983 RMK A01 T01430140  RH  098%=      5-min Rain = 0
KDO2 160720Z 09006KT 14/14 A2983 RMK A01 T01430140  RH  098%=      5-min Rain = 0
KDO2 160721Z 09006KT 14/14 A2983 RMK A01 T01430140  RH  098%=      5-min Rain = 0
KDO2 160722Z 09006KT 14/14 A2983 RMK A01 T01430140  RH  098%=      5-min Rain = 0
KDO2 160723Z 09006KT 14/14 A2983 RMK A01 T01430140  RH  098%=      5-min Rain = 0
KDO2 160724Z 09004KT 14/14 A2983 RMK A01 T01430140  RH  098%=      5-min Rain = 0
KDO2 160725Z 09005KT 14/14 A2983 RMK A01 T01430140  RH  098%=      5-min Rain = 0
KDO2 160726Z 09006KT 14/14 A2983 RMK A01 T01430140  RH  098%=      5-min Rain = 0
KDO2 160727Z 09006KT 14/14 A2983 RMK A01 T01430140  RH  098%=      5-min Rain = 0
KDO2 160728Z 09006KT 14/14 A2983 RMK A01 T01430140  RH  098%=      5-min Rain = 0
KDO2 160729Z 09006KT 14/14 A2983 RMK A01 T01430140  RH  098%=      5-min Rain = 0
KDO2 160730Z 09006KT 14/14 A2983 RMK A01 T01430140  RH  098%=      5-min Rain = 0
KDO2 160731Z 08007KT 14/14 A2983 RMK A01 T01430140  RH  098%=      5-min Rain = 0
KDO2 160732Z 09005KT 14/14 A2983 RMK A01 T01430140  RH  098%=      5-min Rain = 0
KDO2 160733Z 09006KT 14/14 A2983 RMK A01 T01430140  RH  098%=      5-min Rain = 0
KDO2 160734Z 09006KT 14/14 A2983 RMK A01 T01430140  RH  098%=      5-min Rain = 0
KDO2 160735Z 09005KT 14/14 A2983 RMK A01 T01430140  RH  098%=      5-min Rain = 0
KDO2 160736Z 09006KT 14/14 A2983 RMK A01 T01430140  RH  098%=      5-min Rain = 0
KDO2 160737Z 09005KT 14/14 A2983 RMK A01 T01430141  RH  098%=      5-min Rain = 0
KDO2 160738Z 08006KT 14/14 A2983 RMK A01 T01430140  RH  098%=      5-min Rain = 0
KDO2 160739Z 09006KT 14/14 A2983 RMK A01 T01430140  RH  098%=      5-min Rain = 0
KDO2 160740Z 08005KT 14/14 A2983 RMK A01 T01430140  RH  098%=      5-min Rain = 0
KDO2 160741Z 08006KT 14/14 A2983 RMK A01 T01430140  RH  098%=      5-min Rain = 0
KDO2 160742Z 08005KT 14/14 A2983 RMK A01 T01430140  RH  098%=      5-min Rain = 0
KDO2 160743Z 08005KT 14/14 A2983 RMK A01 T01430140  RH  098%=      5-min Rain = 0
KDO2 160744Z 08005KT 14/14 A2983 RMK A01 T01430140  RH  098%=      5-min Rain = 0
KDO2 160745Z 08005KT 14/14 A2983 RMK A01 T01430141  RH  098%=      5-min Rain = 0
KDO2 160746Z 08006KT 14/14 A2983 RMK A01 T01440141  RH  098%=      5-min Rain = 0
KDO2 160747Z 08005KT 14/14 A2983 RMK A01 T01430140  RH  098%=      5-min Rain = 0
KDO2 160748Z 08006KT 14/14 A2983 RMK A01 T01430141  RH  098%=      5-min Rain = 0
KDO2 160749Z 08006KT 14/14 A2983 RMK A01 T01430141  RH  098%=      5-min Rain = 0
KDO2 160750Z 08005KT 14/14 A2983 RMK A01 T01430140  RH  098%=      5-min Rain = 0
KDO2 160751Z 08006KT 14/14 A2983 RMK A01 T01430141  RH  098%=      5-min Rain = 0
KDO2 160752Z 09005KT 14/14 A2982 RMK A01 T01430141  RH  098%=      5-min Rain = 0
KDO2 160753Z 08005KT 14/14 A2982 RMK A01 T01440141  RH  098%=      5-min Rain = 0
KDO2 160754Z 08005KT 14/14 A2983 RMK A01 T01430140  RH  098%=      5-min Rain = 0
KDO2 160755Z 08005KT 14/14 A2983 RMK A01 T01430141  RH  098%=      5-min Rain = 0
KDO2 160756Z 08005KT 14/14 A2983 RMK A01 T01430141  RH  098%=      5-min Rain = 0
KDO2 160757Z 08005KT 14/14 A2983 RMK A01 T01430141  RH  098%=      5-min Rain = 0
KDO2 160758Z 09005KT 14/14 A2983 RMK A01 T01430141  RH  098%=      5-min Rain = 0
KDO2 160759Z 08005KT 14/14 A2983 RMK A01 T01430141  RH  098%=      5-min Rain = 0
KDO2 160800Z 08005KT 14/14 A2983 RMK A01 T01430141  RH  098%=      5-min Rain = 0
KDO2 160801Z 08005KT 14/14 A2983 RMK A01 T01430141  RH  098%=      5-min Rain = 0
KDO2 160802Z 09005KT 14/14 A2983 RMK A01 T01430141  RH  098%=      5-min Rain = 0
KDO2 160803Z 08005KT 14/14 A2983 RMK A01 T01430141  RH  098%=      5-min Rain = 0
KDO2 160804Z 09005KT 14/14 A2983 RMK A01 T01430141  RH  098%=      5-min Rain = 0
KDO2 160805Z 09005KT 14/14 A2982 RMK A01 T01430141  RH  098%=      5-min Rain = 0
KDO2 160806Z 09005KT 14/14 A2982 RMK A01 T01430141  RH  098%=      5-min Rain = 0
KDO2 160807Z 09004KT 14/14 A2982 RMK A01 T01430141  RH  098%=      5-min Rain = 0
KDO2 160808Z 09005KT 14/14 A2982 RMK A01 T01430141  RH  098%=      5-min Rain = 0
KDO2 160809Z 09005KT 14/14 A2982 RMK A01 T01430141  RH  098%=      5-min Rain = 0
KDO2 160810Z 08004KT 14/14 A2982 RMK A01 T01430141  RH  098%=      5-min Rain = 0
KDO2 160811Z 08005KT 14/14 A2982 RMK A01 T01430141  RH  098%=      5-min Rain = 0
KDO2 160812Z 08005KT 14/14 A2982 RMK A01 T01430141  RH  098%=      5-min Rain = 0
KDO2 160813Z 08005KT 14/14 A2982 RMK A01 T01430141  RH  098%=      5-min Rain = 0
KDO2 160814Z 09006KT 14/14 A2982 RMK A01 T01430141  RH  098%=      5-min Rain = 0
KDO2 160815Z 08006KT 14/14 A2982 RMK A01 T01430141  RH  098%=      5-min Rain = 0
KDO2 160816Z 08005KT 14/14 A2982 RMK A01 T01430141  RH  098%=      5-min Rain = 0
KDO2 160817Z 08006KT 14/14 A2982 RMK A01 T01440141  RH  098%=      5-min Rain = 0
KDO2 160818Z 08006KT 14/14 A2982 RMK A01 T01440141  RH  098%=      5-min Rain = 0
KDO2 160819Z 08006KT 14/14 A2982 RMK A01 T01440141  RH  098%=      5-min Rain = 0
KDO2 160820Z 08006KT 14/14 A2982 RMK A01 T01440141  RH  098%=      5-min Rain = 0
KDO2 160821Z 08007KT 14/14 A2982 RMK A01 T01440141  RH  098%=      5-min Rain = 0
KDO2 160822Z 08007KT 14/14 A2982 RMK A01 T01440141  RH  098%=      5-min Rain = 0
KDO2 160823Z 08007KT 14/14 A2981 RMK A01 T01440141  RH  098%=      5-min Rain = 0
KDO2 160824Z 08006KT 14/14 A2981 RMK A01 T01440141  RH  098%=      5-min Rain = 0
KDO2 160825Z 08005KT 14/14 A2981 RMK A01 T01440141  RH  098%=      5-min Rain = 0
KDO2 160826Z 07006KT 14/14 A2981 RMK A01 T01440141  RH  098%=      5-min Rain = 0
KDO2 160827Z 08006KT 14/14 A2981 RMK A01 T01430141  RH  098%=      5-min Rain = 0
KDO2 160828Z 08005KT 14/14 A2981 RMK A01 T01430141  RH  098%=      5-min Rain = 0
KDO2 160829Z 08005KT 14/14 A2981 RMK A01 T01430141  RH  098%=      5-min Rain = 0
KDO2 160830Z 08005KT 14/14 A2981 RMK A01 T01430141  RH  098%=      5-min Rain = 0
KDO2 160831Z 09006KT 14/14 A2981 RMK A01 T01430141  RH  098%=      5-min Rain = 0
KDO2 160832Z 09006KT 14/14 A2981 RMK A01 T01430141  RH  098%=      5-min Rain = 0
KDO2 160833Z 09006KT 14/14 A2981 RMK A01 T01430141  RH  098%=      5-min Rain = 0
KDO2 160834Z 09007KT 14/14 A2981 RMK A01 T01430141  RH  098%=      5-min Rain = 0
KDO2 160835Z 09006KT 14/14 A2981 RMK A01 T01430141  RH  098%=      5-min Rain = 0
KDO2 160836Z 09007KT 14/14 A2981 RMK A01 T01430141  RH  098%=      5-min Rain = 0
KDO2 160837Z 10006KT 14/14 A2981 RMK A01 T01430141  RH  098%=      5-min Rain = 0
KDO2 160838Z 10005KT 14/14 A2981 RMK A01 T01430141  RH  098%=      5-min Rain = 0
KDO2 160839Z 09006KT 14/14 A2981 RMK A01 T01430141  RH  098%=      5-min Rain = 0
KDO2 160840Z 09006KT 14/14 A2981 RMK A01 T01430141  RH  098%=      5-min Rain = 0
KDO2 160841Z 09006KT 14/14 A2981 RMK A01 T01430141  RH  098%=      5-min Rain = 0
KDO2 160842Z 10006KT 14/14 A2981 RMK A01 T01430141  RH  098%=      5-min Rain = 0
KDO2 160843Z 10006KT 14/14 A2981 RMK A01 T01430141  RH  098%=      5-min Rain = 0
KDO2 160844Z 09006KT 14/14 A2981 RMK A01 T01430141  RH  099%=      5-min Rain = 0
KDO2 160845Z 09006KT 14/14 A2981 RMK A01 T01430141  RH  099%=      5-min Rain = 0
KDO2 160846Z 09006KT 14/14 A2981 RMK A01 T01430141  RH  099%=      5-min Rain = 0
KDO2 160847Z 09006KT 14/14 A2981 RMK A01 T01430141  RH  099%=      5-min Rain = 0
KDO2 160848Z 09006KT 14/14 A2981 RMK A01 T01430141  RH  099%=      5-min Rain = 0
KDO2 160849Z 09006KT 14/14 A2981 RMK A01 T01430141  RH  099%=      5-min Rain = 0
KDO2 160850Z 08007KT 14/14 A2981 RMK A01 T01440142  RH  099%=      5-min Rain = 0
KDO2 160851Z 09007KT 14/14 A2981 RMK A01 T01440142  RH  099%=      5-min Rain = 0
KDO2 160852Z 09007KT 14/14 A2981 RMK A01 T01440142  RH  099%=      5-min Rain = 0
KDO2 160853Z 09007KT 14/14 A2981 RMK A01 T01440141  RH  099%=      5-min Rain = 0
KDO2 160854Z 09006KT 14/14 A2981 RMK A01 T01440141  RH  099%=      5-min Rain = 0
KDO2 160855Z 09007KT 14/14 A2981 RMK A01 T01440141  RH  099%=      5-min Rain = 0
KDO2 160856Z 09007KT 14/14 A2981 RMK A01 T01440142  RH  099%=      5-min Rain = 0
KDO2 160857Z 08005KT 14/14 A2981 RMK A01 T01440141  RH  099%=      5-min Rain = 0
KDO2 160858Z 09006KT 14/14 A2981 RMK A01 T01440142  RH  099%=      5-min Rain = 0
KDO2 160859Z 09005KT 14/14 A2981 RMK A01 T01440142  RH  099%=      5-min Rain = 0
KDO2 160900Z 09006KT 14/14 A2981 RMK A01 T01440142  RH  099%=      5-min Rain = 0
KDO2 160901Z 09006KT 14/14 A2981 RMK A01 T01440142  RH  099%=      5-min Rain = 0
KDO2 160902Z 09006KT 14/14 A2981 RMK A01 T01440142  RH  099%=      5-min Rain = 0
KDO2 160903Z 09006KT 14/14 A2981 RMK A01 T01440142  RH  099%=      5-min Rain = 0
KDO2 160904Z 10005KT 14/14 A2981 RMK A01 T01440142  RH  099%=      5-min Rain = 0
KDO2 160905Z 10006KT 14/14 A2981 RMK A01 T01440142  RH  099%=      5-min Rain = 0
KDO2 160906Z 10005KT 14/14 A2981 RMK A01 T01440142  RH  099%=      5-min Rain = 0
KDO2 160907Z 10006KT 14/14 A2981 RMK A01 T01440142  RH  099%=      5-min Rain = 0
KDO2 160908Z 09005KT 14/14 A2981 RMK A01 T01440142  RH  099%=      5-min Rain = 0
KDO2 160909Z 09006KT 14/14 A2981 RMK A01 T01440142  RH  099%=      5-min Rain = 0
KDO2 160910Z 09006KT 14/14 A2981 RMK A01 T01440142  RH  099%=      5-min Rain = 0
KDO2 160911Z 09006KT 14/14 A2981 RMK A01 T01440142  RH  099%=      5-min Rain = 0
KDO2 160912Z 08006KT 14/14 A2981 RMK A01 T01440142  RH  099%=      5-min Rain = 0
KDO2 160913Z 09006KT 14/14 A2981 RMK A01 T01440142  RH  099%=      5-min Rain = 0
KDO2 160914Z 09005KT 14/14 A2981 RMK A01 T01440142  RH  099%=      5-min Rain = 0
KDO2 160915Z 08005KT 14/14 A2981 RMK A01 T01440142  RH  099%=      5-min Rain = 0
KDO2 160916Z 08006KT 14/14 A2981 RMK A01 T01440142  RH  099%=      5-min Rain = 0
KDO2 160917Z 09005KT 14/14 A2981 RMK A01 T01440142  RH  099%=      5-min Rain = 0
KDO2 160918Z 09005KT 14/14 A2981 RMK A01 T01440142  RH  099%=      5-min Rain = 0
KDO2 160919Z 09005KT 14/14 A2982 RMK A01 T01440142  RH  099%=      5-min Rain = 0
KDO2 160920Z 09004KT 14/14 A2982 RMK A01 T01440142  RH  099%=      5-min Rain = 0
KDO2 160921Z 08003KT 14/14 A2982 RMK A01 T01440142  RH  099%=      5-min Rain = 0
KDO2 160922Z 07003KT 14/14 A2982 RMK A01 T01440142  RH  099%=      5-min Rain = 0
KDO2 160923Z 07004KT 14/14 A2982 RMK A01 T01440142  RH  099%=      5-min Rain = 0
KDO2 160924Z 07004KT 14/14 A2982 RMK A01 T01440142  RH  099%=      5-min Rain = 0
KDO2 160925Z 07004KT 14/14 A2982 RMK A01 T01440142  RH  099%=      5-min Rain = 0
KDO2 160926Z 07003KT 14/14 A2982 RMK A01 T01440142  RH  099%=      5-min Rain = 0
KDO2 160927Z 07004KT 14/14 A2982 RMK A01 T01440142  RH  099%=      5-min Rain = 0
KDO2 160928Z 08004KT 14/14 A2982 RMK A01 T01440142  RH  099%=      5-min Rain = 0
KDO2 160929Z 08005KT 14/14 A2982 RMK A01 T01440142  RH  099%=      5-min Rain = 0
KDO2 160930Z 08006KT 14/14 A2982 RMK A01 T01440142  RH  099%=      5-min Rain = 0
KDO2 160931Z 09005KT 14/14 A2982 RMK A01 T01440142  RH  099%=      5-min Rain = 0
KDO2 160932Z 09006KT 14/14 A2982 RMK A01 T01440142  RH  099%=      5-min Rain = 0
KDO2 160933Z 09007KT 15/14 A2982 RMK A01 T01450143  RH  099%=      5-min Rain = 0
KDO2 160934Z 09006KT 15/14 A2982 RMK A01 T01450143  RH  099%=      5-min Rain = 0
KDO2 160935Z 10006KT 15/14 A2981 RMK A01 T01450143  RH  099%=      5-min Rain = 0
KDO2 160936Z 10008KT 15/14 A2981 RMK A01 T01450142  RH  099%=      5-min Rain = 0
KDO2 160937Z 10007KT 15/14 A2981 RMK A01 T01450143  RH  099%=      5-min Rain = 0
KDO2 160938Z 10007KT 15/14 A2981 RMK A01 T01450143  RH  099%=      5-min Rain = 0
KDO2 160939Z 10007KT 15/14 A2981 RMK A01 T01450143  RH  099%=      5-min Rain = 0
KDO2 160940Z 10007KT 15/14 A2981 RMK A01 T01450143  RH  099%=      5-min Rain = 0
KDO2 160941Z 10007KT 15/14 A2981 RMK A01 T01450143  RH  099%=      5-min Rain = 0
KDO2 160942Z 10007KT 15/14 A2981 RMK A01 T01450143  RH  099%=      5-min Rain = 0
KDO2 160943Z 10006KT 15/14 A2981 RMK A01 T01450143  RH  099%=      5-min Rain = 0
KDO2 160944Z 10005KT 15/14 A2981 RMK A01 T01450143  RH  099%=      5-min Rain = 0
KDO2 160945Z 10005KT 15/14 A2981 RMK A01 T01450143  RH  099%=      5-min Rain = 0
KDO2 160946Z 10006KT 15/14 A298 RMK A01 T01450143  RH  099%=      5-min Rain = 0
KDO2 160947Z 10005KT 15/14 A298 RMK A01 T01450143  RH  099%=      5-min Rain = 0
KDO2 160948Z 10006KT 15/14 A298 RMK A01 T01450143  RH  099%=      5-min Rain = 0
KDO2 160949Z 10006KT 15/14 A298 RMK A01 T01450143  RH  099%=      5-min Rain = 0
KDO2 160950Z 10006KT 15/14 A298 RMK A01 T01450142  RH  099%=      5-min Rain = 0
KDO2 160951Z 11005KT 15/14 A298 RMK A01 T01450143  RH  099%=      5-min Rain = 0
KDO2 160952Z 11004KT 15/14 A298 RMK A01 T01450143  RH  099%=      5-min Rain = 0
KDO2 160953Z 11006KT 15/14 A298 RMK A01 T01450143  RH  099%=      5-min Rain = 0
KDO2 160954Z 12005KT 15/14 A298 RMK A01 T01450143  RH  099%=      5-min Rain = 0
KDO2 160955Z 11005KT 15/14 A298 RMK A01 T01450143  RH  099%=      5-min Rain = 0
KDO2 160956Z 12006KT 15/14 A298 RMK A01 T01450143  RH  099%=      5-min Rain = 0
KDO2 160957Z 12006KT 15/14 A298 RMK A01 T01450143  RH  099%=      5-min Rain = 0
KDO2 160958Z 12006KT 15/14 A298 RMK A01 T01450143  RH  099%=      5-min Rain = 0
KDO2 160959Z 12006KT 15/14 A298 RMK A01 T01450143  RH  099%=      5-min Rain = 0
KDO2 161000Z 12006KT 15/14 A298 RMK A01 T01450143  RH  099%=      5-min Rain = 0
KDO2 161001Z 11006KT 15/14 A298 RMK A01 T01450143  RH  099%=      5-min Rain = 0
KDO2 161002Z 11005KT 14/14 A298 RMK A01 T01440142  RH  099%=      5-min Rain = 0
KDO2 161003Z 11006KT 15/14 A298 RMK A01 T01450143  RH  099%=      5-min Rain = 0
KDO2 161004Z 11005KT 15/14 A298 RMK A01 T01450143  RH  099%=      5-min Rain = 0
KDO2 161005Z 11004KT 15/14 A298 RMK A01 T01450142  RH  099%=      5-min Rain = 0
KDO2 161006Z 11006KT 15/14 A298 RMK A01 T01450142  RH  099%=      5-min Rain = 0
KDO2 161007Z 11006KT 15/14 A298 RMK A01 T01450143  RH  099%=      5-min Rain = 0
KDO2 161008Z 11005KT 15/14 A298 RMK A01 T01450143  RH  099%=      5-min Rain = 0
KDO2 161009Z 11004KT 15/14 A298 RMK A01 T01450143  RH  099%=      5-min Rain = 0
KDO2 161010Z 11005KT 15/14 A298 RMK A01 T01450143  RH  099%=      5-min Rain = 0
KDO2 161011Z 10005KT 15/14 A298 RMK A01 T01450143  RH  099%=      5-min Rain = 0
KDO2 161012Z 10005KT 15/14 A298 RMK A01 T01450143  RH  099%=      5-min Rain = 0
KDO2 161013Z 10005KT 15/14 A298 RMK A01 T01450143  RH  099%=      5-min Rain = 0
KDO2 161014Z 10006KT 15/14 A298 RMK A01 T01450143  RH  099%=      5-min Rain = 0
KDO2 161015Z 11006KT 15/14 A298 RMK A01 T01450143  RH  099%=      5-min Rain = 0
KDO2 161016Z 10005KT 15/14 A298 RMK A01 T01450142  RH  099%=      5-min Rain = 0
KDO2 161017Z 10006KT 15/14 A298 RMK A01 T01450143  RH  099%=      5-min Rain = 0
KDO2 161018Z 10005KT 15/14 A298 RMK A01 T01450143  RH  099%=      5-min Rain = 0
KDO2 161019Z 10006KT 15/14 A298 RMK A01 T01450143  RH  099%=      5-min Rain = 0
KDO2 161020Z 10005KT 15/14 A298 RMK A01 T01450143  RH  099%=      5-min Rain = 0
KDO2 161021Z 10005KT 15/14 A298 RMK A01 T01450143  RH  099%=      5-min Rain = 0
KDO2 161022Z 11005KT 15/14 A298 RMK A01 T01450143  RH  099%=      5-min Rain = 0
KDO2 161023Z 10006KT 15/14 A298 RMK A01 T01450143  RH  099%=      5-min Rain = 0
KDO2 161024Z 10006KT 15/14 A298 RMK A01 T01450142  RH  099%=      5-min Rain = 0
KDO2 161025Z 10005KT 15/14 A298 RMK A01 T01450143  RH  099%=      5-min Rain = 0
KDO2 161026Z 11006KT 15/14 A298 RMK A01 T01450143  RH  099%=      5-min Rain = 0
KDO2 161027Z 10007KT 15/14 A298 RMK A01 T01450143  RH  099%=      5-min Rain = 0
KDO2 161028Z 11006KT 15/14 A298 RMK A01 T01450143  RH  099%=      5-min Rain = 0
KDO2 161029Z 10006KT 15/14 A298 RMK A01 T01450143  RH  099%=      5-min Rain = 0
KDO2 161030Z 10006KT 15/14 A298 RMK A01 T01450143  RH  099%=      5-min Rain = 0
KDO2 161031Z 10006KT 15/14 A2979 RMK A01 T01450143  RH  099%=      5-min Rain = 0
KDO2 161032Z 10006KT 15/14 A298 RMK A01 T01450143  RH  099%=      5-min Rain = 0
KDO2 161033Z 10006KT 15/14 A298 RMK A01 T01450143  RH  099%=      5-min Rain = 0
KDO2 161034Z 10006KT 15/14 A2979 RMK A01 T01450143  RH  099%=      5-min Rain = 0
KDO2 161035Z 10007KT 15/14 A2979 RMK A01 T01450143  RH  099%=      5-min Rain = 0
KDO2 161036Z 10006KT 15/14 A2979 RMK A01 T01450143  RH  099%=      5-min Rain = 0
KDO2 161037Z 09006KT 15/14 A2979 RMK A01 T01450143  RH  099%=      5-min Rain = 0
KDO2 161038Z 10006KT 15/14 A2979 RMK A01 T01450143  RH  099%=      5-min Rain = 0
KDO2 161039Z 09005KT 15/14 A2979 RMK A01 T01450143  RH  099%=      5-min Rain = 0
KDO2 161040Z 10006KT 15/14 A2979 RMK A01 T01450143  RH  099%=      5-min Rain = 0
KDO2 161041Z 10005KT 15/14 A298 RMK A01 T01450143  RH  099%=      5-min Rain = 0
KDO2 161042Z 10005KT 15/14 A298 RMK A01 T01450143  RH  099%=      5-min Rain = 0
KDO2 161043Z 10005KT 15/14 A298 RMK A01 T01450143  RH  099%=      5-min Rain = 0
KDO2 161044Z 10004KT 15/14 A298 RMK A01 T01450143  RH  099%=      5-min Rain = 0
KDO2 161045Z 10004KT 15/14 A298 RMK A01 T01450143  RH  099%=      5-min Rain = 0
KDO2 161046Z 10004KT 15/14 A298 RMK A01 T01450143  RH  099%=      5-min Rain = 0
KDO2 161047Z 10004KT 15/14 A298 RMK A01 T01450143  RH  099%=      5-min Rain = 0
KDO2 161048Z 10004KT 15/14 A298 RMK A01 T01450143  RH  099%=      5-min Rain = 0
KDO2 161049Z 10004KT 15/14 A298 RMK A01 T01450143  RH  099%=      5-min Rain = 0
KDO2 161050Z 09004KT 15/14 A298 RMK A01 T01450143  RH  099%=      5-min Rain = 0
KDO2 161051Z 10003KT 15/14 A298 RMK A01 T01450143  RH  099%=      5-min Rain = 0
KDO2 161052Z 10004KT 15/14 A298 RMK A01 T01460144  RH  099%=      5-min Rain = 0
KDO2 161053Z 10004KT 15/14 A298 RMK A01 T01460144  RH  099%=      5-min Rain = 0
KDO2 161054Z 11004KT 15/14 A2979 RMK A01 T01460144  RH  099%=      5-min Rain = 0
KDO2 161055Z 11004KT 15/14 A298 RMK A01 T01460144  RH  099%=      5-min Rain = 0
KDO2 161056Z 11004KT 15/14 A298 RMK A01 T01460144  RH  099%=      5-min Rain = 0
KDO2 161057Z 10005KT 15/14 A2979 RMK A01 T01460144  RH  099%=      5-min Rain = 0
KDO2 161058Z 10005KT 15/14 A2979 RMK A01 T01460144  RH  099%=      5-min Rain = 0
KDO2 161059Z 11005KT 15/14 A2979 RMK A01 T01460144  RH  099%=      5-min Rain = 0
KDO2 161100Z 11003KT 15/14 A2979 RMK A01 T01460143  RH  099%=      5-min Rain = 0
KDO2 161101Z 11003KT 15/14 A2979 RMK A01 T01460144  RH  099%=      5-min Rain = 0
KDO2 161102Z 12004KT 15/14 A2979 RMK A01 T01460144  RH  099%=      5-min Rain = 0
KDO2 161103Z 12005KT 15/14 A2979 RMK A01 T01460144  RH  099%=      5-min Rain = 0
KDO2 161104Z 12005KT 15/14 A298 RMK A01 T01460144  RH  099%=      5-min Rain = 0
KDO2 161105Z 11004KT 15/14 A298 RMK A01 T01450143  RH  099%=      5-min Rain = 0
KDO2 161106Z 12004KT 15/14 A298 RMK A01 T01460143  RH  099%=      5-min Rain = 0
KDO2 161107Z 12005KT 15/14 A298 RMK A01 T01460144  RH  099%=      5-min Rain = 0
KDO2 161108Z 11004KT 15/14 A298 RMK A01 T01460143  RH  099%=      5-min Rain = 0
KDO2 161109Z 11004KT 15/14 A298 RMK A01 T01460144  RH  099%=      5-min Rain = 0
KDO2 161110Z 10005KT 15/14 A298 RMK A01 T01460144  RH  099%=      5-min Rain = 0
KDO2 161111Z 11004KT 15/14 A2979 RMK A01 T01460144  RH  099%=      5-min Rain = 0
KDO2 161112Z 11004KT 15/14 A2979 RMK A01 T01460144  RH  099%=      5-min Rain = 0
KDO2 161113Z 11005KT 15/14 A2979 RMK A01 T01460144  RH  099%=      5-min Rain = 0
KDO2 161114Z 11005KT 15/14 A2979 RMK A01 T01460144  RH  099%=      5-min Rain = 0
KDO2 161115Z 10005KT 15/14 A2979 RMK A01 T01460144  RH  099%=      5-min Rain = 0
KDO2 161116Z 10005KT 15/14 A2979 RMK A01 T01460144  RH  099%=      5-min Rain = 0
KDO2 161117Z 10004KT 15/14 A2979 RMK A01 T01460144  RH  099%=      5-min Rain = 0
KDO2 161118Z 11004KT 15/14 A2979 RMK A01 T01460144  RH  099%=      5-min Rain = 0
KDO2 161119Z 10004KT 15/14 A2979 RMK A01 T01460144  RH  099%=      5-min Rain = 0
KDO2 161120Z 10004KT 15/14 A2979 RMK A01 T01460144  RH  099%=      5-min Rain = 0
KDO2 161121Z 10004KT 15/14 A2979 RMK A01 T01460144  RH  099%=      5-min Rain = 0
KDO2 161122Z 12004KT 15/14 A2979 RMK A01 T01460144  RH  099%=      5-min Rain = 0
KDO2 161123Z 11003KT 15/14 A2979 RMK A01 T01460144  RH  099%=      5-min Rain = 0
KDO2 161124Z 11004KT 15/14 A2979 RMK A01 T01460144  RH  099%=      5-min Rain = 0
KDO2 161125Z 11005KT 15/14 A2979 RMK A01 T01460144  RH  099%=      5-min Rain = 0
KDO2 161126Z 11005KT 15/14 A2979 RMK A01 T01460144  RH  099%=      5-min Rain = 0
KDO2 161127Z 11004KT 15/14 A2979 RMK A01 T01460144  RH  099%=      5-min Rain = 0
KDO2 161128Z 11005KT 15/14 A2979 RMK A01 T01460144  RH  099%=      5-min Rain = 0
KDO2 161129Z 11005KT 15/14 A2979 RMK A01 T01460144  RH  099%=      5-min Rain = 0
KDO2 161130Z 11004KT 15/14 A2979 RMK A01 T01460144  RH  099%=      5-min Rain = 0
KDO2 161131Z 11004KT 15/14 A2979 RMK A01 T01460144  RH  099%=      5-min Rain = 0
KDO2 161132Z 11003KT 15/14 A2979 RMK A01 T01460144  RH  099%=      5-min Rain = 0
KDO2 161133Z 11003KT 15/14 A2979 RMK A01 T01460144  RH  099%=      5-min Rain = 0
KDO2 161134Z 11003KT 15/14 A2979 RMK A01 T01460144  RH  099%=      5-min Rain = 0
KDO2 161135Z 11004KT 15/14 A2979 RMK A01 T01460144  RH  099%=      5-min Rain = 0
KDO2 161136Z 10004KT 15/14 A2979 RMK A01 T01460144  RH  099%=      5-min Rain = 0
KDO2 161137Z 10003KT 15/14 A2979 RMK A01 T01460144  RH  099%=      5-min Rain = 0
KDO2 161138Z 10003KT 15/14 A2979 RMK A01 T01460144  RH  099%=      5-min Rain = 0
KDO2 161139Z 10004KT 15/15 A2979 RMK A01 T01470145  RH  099%=      5-min Rain = 0
KDO2 161140Z 11004KT 15/15 A2979 RMK A01 T01460145  RH  099%=      5-min Rain = 0
KDO2 161141Z 10004KT 15/15 A2979 RMK A01 T01470145  RH  099%=      5-min Rain = 0
KDO2 161142Z 10004KT 15/15 A2979 RMK A01 T01460145  RH  099%=      5-min Rain = 0
KDO2 161143Z 11004KT 15/15 A2979 RMK A01 T01460145  RH  099%=      5-min Rain = 0
KDO2 161144Z 11004KT 15/15 A2979 RMK A01 T01460145  RH  099%=      5-min Rain = 0
KDO2 161145Z 11004KT 15/15 A2979 RMK A01 T01470145  RH  099%=      5-min Rain = 0
KDO2 161146Z 11005KT 15/15 A2979 RMK A01 T01470145  RH  099%=      5-min Rain = 0
KDO2 161147Z 11004KT 15/14 A2979 RMK A01 T01460144  RH  099%=      5-min Rain = 0
KDO2 161148Z 10004KT 15/15 A2979 RMK A01 T01470145  RH  099%=      5-min Rain = 0
KDO2 161149Z 10004KT 15/15 A2979 RMK A01 T01470145  RH  099%=      5-min Rain = 0
KDO2 161150Z 10004KT 15/15 A2979 RMK A01 T01470145  RH  099%=      5-min Rain = 0
KDO2 161151Z 10004KT 15/15 A2979 RMK A01 T01470145  RH  099%=      5-min Rain = 0
KDO2 161152Z 10004KT 15/15 A2979 RMK A01 T01470145  RH  099%=      5-min Rain = 0
KDO2 161153Z 10004KT 15/15 A2979 RMK A01 T01470145  RH  099%=      5-min Rain = 0
KDO2 161154Z 10005KT 15/15 A2979 RMK A01 T01470145  RH  099%=      5-min Rain = 0
KDO2 161155Z 10004KT 15/15 A2979 RMK A01 T01470145  RH  099%=      5-min Rain = 0
KDO2 161156Z 10004KT 15/15 A2979 RMK A01 T01470145  RH  099%=      5-min Rain = 0
KDO2 161157Z 11005KT 15/15 A2979 RMK A01 T01470145  RH  099%=      5-min Rain = 0
KDO2 161158Z 10005KT 15/15 A2979 RMK A01 T01470145  RH  099%=      5-min Rain = 0
KDO2 161159Z 10004KT 15/15 A2979 RMK A01 T01470145  RH  099%=      5-min Rain = 0
KDO2 161200Z 09004KT 15/15 A2979 RMK A01 T01470145  RH  099%=      5-min Rain = 0
KDO2 161201Z 09004KT 15/15 A2979 RMK A01 T01470145  RH  099%=      5-min Rain = 0
KDO2 161202Z 09004KT 15/15 A2979 RMK A01 T01470145  RH  099%=      5-min Rain = 0
KDO2 161203Z 09004KT 15/15 A2979 RMK A01 T01470145  RH  099%=      5-min Rain = 0
KDO2 161204Z 10003KT 15/15 A2979 RMK A01 T01470145  RH  099%=      5-min Rain = 0
KDO2 161205Z 10004KT 15/14 A2979 RMK A01 T01460144  RH  099%=      5-min Rain = 0
KDO2 161206Z 09004KT 15/15 A2979 RMK A01 T01470145  RH  099%=      5-min Rain = 0
KDO2 161207Z 10004KT 15/15 A2979 RMK A01 T01460145  RH  099%=      5-min Rain = 0
KDO2 161208Z 10003KT 15/15 A2979 RMK A01 T01470145  RH  099%=      5-min Rain = 0
KDO2 161209Z 09004KT 15/15 A2979 RMK A01 T01470145  RH  099%=      5-min Rain = 0
KDO2 161210Z 09004KT 15/15 A2979 RMK A01 T01470145  RH  099%=      5-min Rain = 0
KDO2 161211Z 09004KT 15/15 A2979 RMK A01 T01470145  RH  099%=      5-min Rain = 0
KDO2 161212Z 09004KT 15/15 A2979 RMK A01 T01470145  RH  099%=      5-min Rain = 0
KDO2 161213Z 08004KT 15/15 A2979 RMK A01 T01470145  RH  099%=      5-min Rain = 0
KDO2 161214Z 08004KT 15/14 A2979 RMK A01 T01460144  RH  099%=      5-min Rain = 0
KDO2 161215Z 08004KT 15/15 A2979 RMK A01 T01470145  RH  099%=      5-min Rain = 0
KDO2 161216Z 08003KT 15/14 A2979 RMK A01 T01460144  RH  099%=      5-min Rain = 0
KDO2 161217Z 07003KT 15/15 A2979 RMK A01 T01470145  RH  099%=      5-min Rain = 0
KDO2 161218Z 07004KT 15/15 A2979 RMK A01 T01470145  RH  099%=      5-min Rain = 0
KDO2 161219Z 07003KT 15/15 A2979 RMK A01 T01470145  RH  099%=      5-min Rain = 0
KDO2 161220Z 07003KT 15/15 A2979 RMK A01 T01470145  RH  099%=      5-min Rain = 0
KDO2 161221Z 07003KT 15/15 A2979 RMK A01 T01470145  RH  099%=      5-min Rain = 0
KDO2 161222Z 07004KT 15/15 A2979 RMK A01 T01470145  RH  099%=      5-min Rain = 0
KDO2 161223Z 07003KT 15/15 A2979 RMK A01 T01470145  RH  099%=      5-min Rain = 0
KDO2 161224Z 07003KT 15/15 A298 RMK A01 T01470145  RH  099%=      5-min Rain = 0
KDO2 161225Z 07002KT 15/15 A298 RMK A01 T01480146  RH  099%=      5-min Rain = 0
KDO2 161226Z 08002KT 15/15 A298 RMK A01 T01470145  RH  099%=      5-min Rain = 0
KDO2 161227Z 08002KT 15/15 A298 RMK A01 T01470146  RH  099%=      5-min Rain = 0
KDO2 161228Z 07002KT 15/15 A298 RMK A01 T01470145  RH  099%=      5-min Rain = 0
KDO2 161229Z 08002KT 15/15 A298 RMK A01 T01480146  RH  099%=      5-min Rain = 0
KDO2 161230Z 08002KT 15/15 A298 RMK A01 T01470145  RH  099%=      5-min Rain = 0
KDO2 161231Z 09002KT 15/15 A298 RMK A01 T01470145  RH  099%=      5-min Rain = 0
KDO2 161232Z 10002KT 15/15 A298 RMK A01 T01470145  RH  099%=      5-min Rain = 0
KDO2 161233Z 10002KT 15/15 A298 RMK A01 T01470145  RH  099%=      5-min Rain = 0
KDO2 161234Z 10002KT 15/15 A298 RMK A01 T01480146  RH  099%=      5-min Rain = 0
KDO2 161235Z 10002KT 15/15 A298 RMK A01 T01480146  RH  099%=      5-min Rain = 0
KDO2 161236Z 11002KT 15/15 A298 RMK A01 T01470145  RH  099%=      5-min Rain = 0
KDO2 161237Z 12003KT 15/15 A298 RMK A01 T01470145  RH  099%=      5-min Rain = 0
KDO2 161238Z 11002KT 15/15 A298 RMK A01 T01480146  RH  099%=      5-min Rain = 0
KDO2 161239Z 11002KT 15/15 A298 RMK A01 T01480146  RH  099%=      5-min Rain = 0
KDO2 161240Z 12002KT 15/15 A298 RMK A01 T01480146  RH  099%=      5-min Rain = 0
KDO2 161241Z 12001KT 15/15 A298 RMK A01 T01480146  RH  099%=      5-min Rain = 0
KDO2 161242Z 11002KT 15/15 A298 RMK A01 T01480146  RH  099%=      5-min Rain = 0
KDO2 161243Z 12002KT 15/15 A298 RMK A01 T01480146  RH  099%=      5-min Rain = 0
KDO2 161244Z 12003KT 15/15 A298 RMK A01 T01480146  RH  099%=      5-min Rain = 0
KDO2 161245Z 11002KT 15/15 A298 RMK A01 T01490147  RH  099%=      5-min Rain = 0
KDO2 161246Z 10002KT 15/15 A298 RMK A01 T01480146  RH  099%=      5-min Rain = 0
KDO2 161247Z 10002KT 15/15 A298 RMK A01 T01480146  RH  099%=      5-min Rain = 0
KDO2 161248Z 10002KT 15/15 A298 RMK A01 T01480146  RH  099%=      5-min Rain = 0
KDO2 161249Z 10003KT 15/15 A298 RMK A01 T01480146  RH  099%=      5-min Rain = 0
KDO2 161250Z 09002KT 15/15 A298 RMK A01 T01480146  RH  099%=      5-min Rain = 0
KDO2 161251Z 10002KT 15/15 A298 RMK A01 T01480146  RH  099%=      5-min Rain = 0
KDO2 161252Z 09002KT 15/15 A298 RMK A01 T01480146  RH  099%=      5-min Rain = 0
KDO2 161253Z 09003KT 15/15 A298 RMK A01 T01490147  RH  099%=      5-min Rain = 0
KDO2 161254Z 10002KT 15/15 A298 RMK A01 T01490147  RH  099%=      5-min Rain = 0
KDO2 161255Z 10002KT 15/15 A298 RMK A01 T01490147  RH  099%=      5-min Rain = 0
KDO2 161256Z 10002KT 15/15 A298 RMK A01 T01490147  RH  099%=      5-min Rain = 0
KDO2 161257Z 11003KT 15/15 A298 RMK A01 T01490147  RH  099%=      5-min Rain = 0
KDO2 161258Z 11003KT 15/15 A298 RMK A01 T01490147  RH  099%=      5-min Rain = 0
KDO2 161259Z 11003KT 15/15 A298 RMK A01 T01490147  RH  099%=      5-min Rain = 0
KDO2 161300Z 11003KT 15/15 A298 RMK A01 T01490147  RH  099%=      5-min Rain = 0
KDO2 161301Z 12004KT 15/15 A298 RMK A01 T01490147  RH  099%=      5-min Rain = 0
KDO2 161302Z 12004KT 15/15 A298 RMK A01 T01490147  RH  099%=      5-min Rain = 0
KDO2 161303Z 12004KT 15/15 A298 RMK A01 T01490147  RH  099%=      5-min Rain = 0
KDO2 161304Z 12004KT 15/15 A298 RMK A01 T01490147  RH  099%=      5-min Rain = 0
KDO2 161305Z 11003KT 15/15 A298 RMK A01 T01490147  RH  099%=      5-min Rain = 0
KDO2 161306Z 12003KT 15/15 A298 RMK A01 T01500148  RH  099%=      5-min Rain = 0
KDO2 161307Z 11003KT 15/15 A298 RMK A01 T01500148  RH  099%=      5-min Rain = 0
KDO2 161308Z 12003KT 15/15 A298 RMK A01 T01500148  RH  099%=      5-min Rain = 0
KDO2 161309Z 11003KT 15/15 A298 RMK A01 T01500148  RH  099%=      5-min Rain = 0
KDO2 161310Z 11003KT 15/15 A298 RMK A01 T01500148  RH  099%=      5-min Rain = 0
KDO2 161311Z 11004KT 15/15 A298 RMK A01 T01500148  RH  099%=      5-min Rain = 0
KDO2 161312Z 11004KT 15/15 A298 RMK A01 T01500148  RH  099%=      5-min Rain = 0
KDO2 161313Z 11005KT 15/15 A298 RMK A01 T01500148  RH  099%=      5-min Rain = 0
KDO2 161314Z 11004KT 15/15 A298 RMK A01 T01500148  RH  099%=      5-min Rain = 0
KDO2 161315Z 11005KT 15/15 A298 RMK A01 T01500148  RH  099%=      5-min Rain = 0
KDO2 161316Z 11004KT 15/15 A298 RMK A01 T01490147  RH  099%=      5-min Rain = 0
KDO2 161317Z 12003KT 15/15 A298 RMK A01 T01500148  RH  099%=      5-min Rain = 0
KDO2 161318Z 11004KT 15/15 A298 RMK A01 T01500148  RH  099%=      5-min Rain = 0
KDO2 161319Z 12004KT 15/15 A298 RMK A01 T01500148  RH  099%=      5-min Rain = 0
KDO2 161320Z 12004KT 15/15 A298 RMK A01 T01500148  RH  099%=      5-min Rain = 0
KDO2 161321Z 12003KT 15/15 A298 RMK A01 T01500148  RH  099%=      5-min Rain = 0
KDO2 161322Z 12003KT 15/15 A298 RMK A01 T01500148  RH  099%=      5-min Rain = 0
KDO2 161323Z 12003KT 15/15 A298 RMK A01 T01500148  RH  099%=      5-min Rain = 0
KDO2 161324Z 12003KT 15/15 A298 RMK A01 T01510149  RH  099%=      5-min Rain = 0
KDO2 161325Z 13003KT 15/15 A298 RMK A01 T01510149  RH  099%=      5-min Rain = 0
KDO2 161326Z 12003KT 15/15 A298 RMK A01 T01510149  RH  099%=      5-min Rain = 0
KDO2 161327Z 10002KT 15/15 A298 RMK A01 T01510149  RH  099%=      5-min Rain = 0
KDO2 161328Z 10002KT 15/15 A298 RMK A01 T01510149  RH  099%=      5-min Rain = 0
KDO2 161329Z 11002KT 15/15 A298 RMK A01 T01510150  RH  099%=      5-min Rain = 0
KDO2 161330Z 11003KT 15/15 A298 RMK A01 T01520150  RH  099%=      5-min Rain = 0
KDO2 161331Z 11003KT 15/15 A298 RMK A01 T01510149  RH  099%=      5-min Rain = 0
KDO2 161332Z 11003KT 15/15 A298 RMK A01 T01510149  RH  099%=      5-min Rain = 0
KDO2 161333Z 13002KT 15/15 A298 RMK A01 T01510149  RH  099%=      5-min Rain = 0
KDO2 161334Z 13002KT 15/15 A298 RMK A01 T01510149  RH  099%=      5-min Rain = 0
KDO2 161335Z 14002KT 15/15 A298 RMK A01 T01510149  RH  099%=      5-min Rain = 0
KDO2 161336Z 13002KT 15/15 A298 RMK A01 T01510149  RH  099%=      5-min Rain = 0
KDO2 161337Z 14003KT 15/15 A298 RMK A01 T01510149  RH  099%=      5-min Rain = 0
KDO2 161338Z 13003KT 15/15 A298 RMK A01 T01510149  RH  099%=      5-min Rain = 0
KDO2 161339Z 14004KT 15/15 A298 RMK A01 T01520150  RH  099%=      5-min Rain = 0
KDO2 161340Z 16003KT 15/15 A298 RMK A01 T01520150  RH  099%=      5-min Rain = 0
KDO2 161341Z 15004KT 15/15 A298 RMK A01 T01530151  RH  099%=      5-min Rain = 0
KDO2 161342Z 15004KT 15/15 A298 RMK A01 T01530151  RH  099%=      5-min Rain = 0
KDO2 161343Z 14004KT 15/15 A298 RMK A01 T01530151  RH  099%=      5-min Rain = 0
KDO2 161344Z 14004KT 15/15 A298 RMK A01 T01530151  RH  099%=      5-min Rain = 0
KDO2 161345Z 16004KT 15/15 A298 RMK A01 T01530150  RH  099%=      5-min Rain = 0
KDO2 161346Z 15004KT 15/15 A298 RMK A01 T01530151  RH  099%=      5-min Rain = 0
KDO2 161347Z 15005KT 15/15 A298 RMK A01 T01530151  RH  099%=      5-min Rain = 0
KDO2 161348Z 15006KT 15/15 A298 RMK A01 T01530151  RH  099%=      5-min Rain = 0
KDO2 161349Z 14005KT 15/15 A2979 RMK A01 T01540151  RH  099%=      5-min Rain = 0
KDO2 161350Z 14005KT 15/15 A2979 RMK A01 T01530151  RH  099%=      5-min Rain = 0
KDO2 161351Z 14005KT 15/15 A2979 RMK A01 T01540152  RH  099%=      5-min Rain = 0
KDO2 161352Z 15005KT 15/15 A2979 RMK A01 T01540152  RH  099%=      5-min Rain = 0
KDO2 161353Z 14004KT 15/15 A2979 RMK A01 T01540152  RH  099%=      5-min Rain = 0
KDO2 161354Z 15005KT 16/15 A2979 RMK A01 T01560154  RH  099%=      5-min Rain = 0
KDO2 161355Z 15005KT 16/15 A2979 RMK A01 T01560154  RH  099%=      5-min Rain = 0
KDO2 161356Z 14004KT 16/15 A2979 RMK A01 T01560154  RH  099%=      5-min Rain = 0
KDO2 161357Z 15006KT 16/15 A2979 RMK A01 T01560154  RH  099%=      5-min Rain = 0
KDO2 161358Z 14006KT 16/15 A2979 RMK A01 T01550153  RH  099%=      5-min Rain = 0
KDO2 161359Z 16007KT 16/15 A2979 RMK A01 T01550153  RH  099%=      5-min Rain = 0
KDO2 161400Z 15006KT 16/15 A2979 RMK A01 T01560154  RH  099%=      5-min Rain = 0
KDO2 161401Z 15006KT 16/15 A2979 RMK A01 T01550153  RH  099%=      5-min Rain = 0
KDO2 161402Z 14006KT 16/15 A2979 RMK A01 T01560154  RH  099%=      5-min Rain = 0
KDO2 161403Z 14005KT 16/15 A2979 RMK A01 T01560154  RH  099%=      5-min Rain = 0
KDO2 161404Z 14006KT 16/16 A2979 RMK A01 T01570155  RH  099%=      5-min Rain = 0
KDO2 161405Z 14006KT 16/15 A2979 RMK A01 T01560154  RH  099%=      5-min Rain = 0
KDO2 161406Z 14005KT 16/15 A2979 RMK A01 T01560153  RH  099%=      5-min Rain = 0
KDO2 161407Z 15005KT 16/15 A2979 RMK A01 T01560154  RH  099%=      5-min Rain = 0
KDO2 161408Z 16006KT 16/15 A2979 RMK A01 T01560154  RH  099%=      5-min Rain = 0
KDO2 161409Z 16005KT 16/16 A2979 RMK A01 T01570155  RH  099%=      5-min Rain = 0
KDO2 161410Z 16005KT 16/15 A2979 RMK A01 T01570154  RH  098%=      5-min Rain = 0
KDO2 161411Z 16005KT 16/16 A298 RMK A01 T01570155  RH  099%=      5-min Rain = 0
KDO2 161412Z 16003KT 16/15 A298 RMK A01 T01570154  RH  098%=      5-min Rain = 0
KDO2 161413Z 17003KT 16/15 A298 RMK A01 T01560154  RH  098%=      5-min Rain = 0
KDO2 161414Z 15002KT 16/16 A298 RMK A01 T01570155  RH  098%=      5-min Rain = 0
KDO2 161415Z 15002KT 16/16 A298 RMK A01 T01580156  RH  099%=      5-min Rain = 0
KDO2 161416Z 15000KT 16/16 A2981 RMK A01 T01580155  RH  098%=      5-min Rain = 0
KDO2 161417Z 34001KT 16/15 A2981 RMK A01 T01570154  RH  098%=      5-min Rain = 0
KDO2 161418Z 34004KT 16/16 A2981 RMK A01 T01570155  RH  098%=      5-min Rain = 0
KDO2 161419Z 34006KT 16/16 A2982 RMK A01 T01580156  RH  098%=      5-min Rain = 0
KDO2 161420Z 34007KT 16/16 A2982 RMK A01 T01580156  RH  098%=      5-min Rain = 0
KDO2 161421Z 33007KT 16/16 A2982 RMK A01 T01580156  RH  098%=      5-min Rain = 0
KDO2 161422Z 34007KT 16/16 A2982 RMK A01 T01580156  RH  098%=      5-min Rain = 0
KDO2 161423Z 33007KT 16/16 A2982 RMK A01 T01580156  RH  098%=      5-min Rain = 0
KDO2 161424Z 34007KT 16/16 A2982 RMK A01 T01580156  RH  098%=      5-min Rain = 0
KDO2 161425Z 34007KT 16/16 A2982 RMK A01 T01580155  RH  098%=      5-min Rain = 0
KDO2 161426Z 34007KT 16/16 A2982 RMK A01 T01580155  RH  098%=      5-min Rain = 0
KDO2 161427Z 33007KT 16/16 A2982 RMK A01 T01580155  RH  098%=      5-min Rain = 0
KDO2 161428Z 33008KT 16/16 A2982 RMK A01 T01580155  RH  098%=      5-min Rain = 0
KDO2 161429Z 33008KT 16/16 A2983 RMK A01 T01580155  RH  098%=      5-min Rain = 0
KDO2 161430Z 33008KT 16/16 A2983 RMK A01 T01580155  RH  098%=      5-min Rain = 0
KDO2 161431Z 33008KT 16/16 A2983 RMK A01 T01580155  RH  098%=      5-min Rain = 0
KDO2 161432Z 34008KT 16/16 A2983 RMK A01 T01580155  RH  098%=      5-min Rain = 0
KDO2 161433Z 34007KT 16/16 A2983 RMK A01 T01580155  RH  098%=      5-min Rain = 0
KDO2 161434Z 33007KT 16/16 A2983 RMK A01 T01580155  RH  098%=      5-min Rain = 0
KDO2 161435Z 34007KT 16/16 A2983 RMK A01 T01580155  RH  098%=      5-min Rain = 0
KDO2 161436Z 34007KT 16/15 A2983 RMK A01 T01570154  RH  098%=      5-min Rain = 0
KDO2 161437Z 34005KT 16/15 A2983 RMK A01 T01570154  RH  098%=      5-min Rain = 0
KDO2 161438Z 34005KT 16/15 A2983 RMK A01 T01570154  RH  098%=      5-min Rain = 0
KDO2 161439Z 33004KT 16/15 A2983 RMK A01 T01570154  RH  098%=      5-min Rain = 0
KDO2 161440Z 33004KT 16/15 A2983 RMK A01 T01570154  RH  098%=      5-min Rain = 0
KDO2 161441Z 33004KT 16/15 A2983 RMK A01 T01570154  RH  098%=      5-min Rain = 0
KDO2 161442Z 34005KT 16/15 A2983 RMK A01 T01570153  RH  098%=      5-min Rain = 0.01
KDO2 161443Z 34006KT 16/15 A2983 RMK A01 T01570153  RH  098%=      5-min Rain = 0
KDO2 161444Z 34006KT 16/15 A2983 RMK A01 T01570154  RH  098%=      5-min Rain = 0
KDO2 161445Z 35006KT 16/16 A2983 RMK A01 T01580155  RH  098%=      5-min Rain = 0
KDO2 161446Z 35006KT 16/16 A2983 RMK A01 T01590155  RH  098%=      5-min Rain = 0
KDO2 161447Z 35005KT 16/16 A2983 RMK A01 T01580155  RH  098%=      5-min Rain = 0
KDO2 161448Z 35005KT 16/16 A2983 RMK A01 T01580155  RH  098%=      5-min Rain = 0
KDO2 161449Z 34006KT 16/16 A2983 RMK A01 T01590155  RH  098%=      5-min Rain = 0
KDO2 161450Z 34007KT 16/16 A2983 RMK A01 T01580155  RH  098%=      5-min Rain = 0
KDO2 161451Z 34006KT 16/16 A2983 RMK A01 T01580155  RH  098%=      5-min Rain = 0
KDO2 161452Z 35006KT 16/16 A2983 RMK A01 T01590155  RH  098%=      5-min Rain = 0
KDO2 161453Z 34006KT 16/16 A2983 RMK A01 T01580155  RH  098%=      5-min Rain = 0
KDO2 161454Z 34008KT 16/16 A2983 RMK A01 T01600156  RH  098%=      5-min Rain = 0
KDO2 161455Z 34007KT 16/16 A2983 RMK A01 T01600156  RH  098%=      5-min Rain = 0
KDO2 161456Z 34007KT 16/16 A2983 RMK A01 T01590155  RH  098%=      5-min Rain = 0
KDO2 161457Z 34007KT 16/16 A2983 RMK A01 T01590155  RH  098%=      5-min Rain = 0
KDO2 161458Z 36006KT 16/16 A2983 RMK A01 T01580155  RH  098%=      5-min Rain = 0
KDO2 161459Z 36006KT 16/16 A2983 RMK A01 T01580155  RH  098%=      5-min Rain = 0
KDO2 161500Z 35007KT 16/16 A2983 RMK A01 T01590155  RH  098%=      5-min Rain = 0
KDO2 161501Z 35006KT 16/16 A2983 RMK A01 T01590155  RH  098%=      5-min Rain = 0
KDO2 161502Z 35005KT 16/16 A2983 RMK A01 T01590155  RH  098%=      5-min Rain = 0
KDO2 161503Z 35004KT 16/16 A2983 RMK A01 T01590155  RH  097%=      5-min Rain = 0
KDO2 161504Z 00005KT 16/16 A2983 RMK A01 T01590155  RH  098%=      5-min Rain = 0
KDO2 161505Z 36006KT 16/16 A2983 RMK A01 T01600156  RH  098%=      5-min Rain = 0
KDO2 161506Z 00006KT 16/16 A2983 RMK A01 T01600156  RH  098%=      5-min Rain = 0
KDO2 161507Z 36007KT 16/16 A2983 RMK A01 T01600156  RH  097%=      5-min Rain = 0
KDO2 161508Z 35006KT 16/16 A2983 RMK A01 T01600156  RH  097%=      5-min Rain = 0
KDO2 161509Z 36007KT 16/16 A2983 RMK A01 T01610157  RH  098%=      5-min Rain = 0
KDO2 161510Z 36007KT 16/16 A2983 RMK A01 T01610157  RH  097%=      5-min Rain = 0
KDO2 161511Z 00007KT 16/16 A2983 RMK A01 T01610156  RH  097%=      5-min Rain = 0
KDO2 161512Z 00007KT 16/16 A2983 RMK A01 T01600156  RH  097%=      5-min Rain = 0
KDO2 161513Z 00008KT 16/16 A2983 RMK A01 T01610157  RH  097%=      5-min Rain = 0
KDO2 161514Z 36008KT 16/16 A2983 RMK A01 T01610157  RH  097%=      5-min Rain = 0
KDO2 161515Z 00008KT 16/16 A2983 RMK A01 T01610157  RH  097%=      5-min Rain = 0
KDO2 161516Z 01009KT 16/16 A2983 RMK A01 T01620157  RH  097%=      5-min Rain = 0
KDO2 161517Z 36008KT 16/16 A2983 RMK A01 T01610156  RH  097%=      5-min Rain = 0
KDO2 161518Z 00008KT 16/16 A2983 RMK A01 T01610156  RH  097%=      5-min Rain = 0
KDO2 161519Z 00007KT 16/16 A2983 RMK A01 T01610156  RH  097%=      5-min Rain = 0
KDO2 161520Z 00007KT 16/16 A2983 RMK A01 T01600155  RH  097%=      5-min Rain = 0
KDO2 161521Z 00007KT 16/16 A2983 RMK A01 T01600155  RH  097%=      5-min Rain = 0
KDO2 161522Z 35007KT 16/16 A2983 RMK A01 T01600155  RH  097%=      5-min Rain = 0
KDO2 161523Z 36007KT 16/16 A2983 RMK A01 T01610156  RH  097%=      5-min Rain = 0
KDO2 161524Z 36007KT 16/16 A2983 RMK A01 T01610156  RH  097%=      5-min Rain = 0
KDO2 161525Z 00007KT 16/16 A2983 RMK A01 T01610157  RH  097%=      5-min Rain = 0
KDO2 161526Z 35007KT 16/16 A2983 RMK A01 T01610155  RH  097%=      5-min Rain = 0
KDO2 161527Z 36006KT 16/16 A2983 RMK A01 T01610156  RH  097%=      5-min Rain = 0
KDO2 161528Z 00006KT 16/16 A2983 RMK A01 T01620158  RH  097%=      5-min Rain = 0
KDO2 161529Z 36006KT 16/16 A2983 RMK A01 T01630158  RH  097%=      5-min Rain = 0
KDO2 161530Z 36006KT 16/16 A2983 RMK A01 T01640159  RH  097%=      5-min Rain = 0
KDO2 161531Z 35006KT 17/16 A2983 RMK A01 T01650160  RH  097%=      5-min Rain = 0
KDO2 161532Z 35006KT 16/16 A2983 RMK A01 T01640158  RH  097%=      5-min Rain = 0
KDO2 161533Z 00006KT 16/16 A2983 RMK A01 T01620157  RH  097%=      5-min Rain = 0
KDO2 161534Z 35008KT 16/16 A2983 RMK A01 T01620157  RH  097%=      5-min Rain = 0
KDO2 161535Z 00008KT 16/16 A2983 RMK A01 T01610156  RH  096%=      5-min Rain = 0
KDO2 161536Z 00007KT 16/16 A2983 RMK A01 T01610155  RH  096%=      5-min Rain = 0
KDO2 161537Z 00008KT 16/16 A2983 RMK A01 T01610155  RH  096%=      5-min Rain = 0
KDO2 161538Z 01007KT 16/16 A2983 RMK A01 T01610155  RH  096%=      5-min Rain = 0
KDO2 161539Z 01006KT 16/16 A2983 RMK A01 T01610155  RH  096%=      5-min Rain = 0
KDO2 161540Z 00006KT 16/16 A2983 RMK A01 T01620156  RH  096%=      5-min Rain = 0
KDO2 161541Z 35006KT 16/16 A2983 RMK A01 T01630156  RH  096%=      5-min Rain = 0
KDO2 161542Z 35006KT 16/16 A2983 RMK A01 T01620155  RH  096%=      5-min Rain = 0
KDO2 161543Z 35007KT 16/16 A2983 RMK A01 T01630157  RH  096%=      5-min Rain = 0
KDO2 161544Z 35007KT 16/16 A2983 RMK A01 T01630157  RH  096%=      5-min Rain = 0
KDO2 161545Z 34006KT 16/16 A2983 RMK A01 T01630156  RH  096%=      5-min Rain = 0
KDO2 161546Z 36006KT 16/16 A2983 RMK A01 T01630156  RH  096%=      5-min Rain = 0
KDO2 161547Z 35006KT 16/16 A2983 RMK A01 T01640157  RH  096%=      5-min Rain = 0
KDO2 161548Z 35007KT 16/16 A2983 RMK A01 T01640157  RH  095%=      5-min Rain = 0
KDO2 161549Z 35007KT 16/16 A2983 RMK A01 T01630155  RH  095%=      5-min Rain = 0
KDO2 161550Z 34007KT 16/16 A2983 RMK A01 T01630156  RH  095%=      5-min Rain = 0
KDO2 161551Z 35007KT 16/16 A2983 RMK A01 T01640157  RH  095%=      5-min Rain = 0
KDO2 161552Z 00008KT 16/16 A2983 RMK A01 T01640157  RH  095%=      5-min Rain = 0
KDO2 161553Z 36008KT 16/16 A2983 RMK A01 T01640155  RH  095%=      5-min Rain = 0
KDO2 161554Z 35008KT 16/16 A2984 RMK A01 T01630155  RH  095%=      5-min Rain = 0
KDO2 161555Z 35007KT 16/16 A2984 RMK A01 T01630155  RH  095%=      5-min Rain = 0
KDO2 161556Z 35007KT 16/16 A2984 RMK A01 T01640155  RH  095%=      5-min Rain = 0
KDO2 161557Z 35007KT 17/16 A2984 RMK A01 T01650157  RH  095%=      5-min Rain = 0
KDO2 161558Z 35007KT 17/16 A2984 RMK A01 T01660158  RH  095%=      5-min Rain = 0
KDO2 161559Z 35007KT 17/16 A2984 RMK A01 T01650156  RH  095%=      5-min Rain = 0
KDO2 161600Z 35007KT 16/16 A2984 RMK A01 T01640155  RH  094%=      5-min Rain = 0
KDO2 161601Z 35007KT 16/16 A2983 RMK A01 T01640155  RH  094%=      5-min Rain = 0
KDO2 161602Z 36006KT 16/15 A2983 RMK A01 T01640154  RH  094%=      5-min Rain = 0
KDO2 161603Z 35007KT 17/16 A2984 RMK A01 T01650156  RH  094%=      5-min Rain = 0
KDO2 161604Z 35006KT 17/16 A2984 RMK A01 T01650156  RH  094%=      5-min Rain = 0
KDO2 161605Z 35005KT 17/16 A2984 RMK A01 T01650155  RH  094%=      5-min Rain = 0
KDO2 161606Z 35005KT 17/16 A2984 RMK A01 T01660157  RH  094%=      5-min Rain = 0
KDO2 161607Z 34005KT 17/16 A2984 RMK A01 T01670157  RH  094%=      5-min Rain = 0
KDO2 161608Z 34005KT 17/16 A2984 RMK A01 T01680159  RH  094%=      5-min Rain = 0
KDO2 161609Z 34007KT 17/16 A2984 RMK A01 T01680157  RH  093%=      5-min Rain = 0
KDO2 161610Z 33006KT 17/15 A2984 RMK A01 T01660154  RH  093%=      5-min Rain = 0
KDO2 161611Z 34007KT 17/16 A2984 RMK A01 T01660155  RH  093%=      5-min Rain = 0
KDO2 161612Z 35007KT 17/16 A2984 RMK A01 T01660155  RH  093%=      5-min Rain = 0
KDO2 161613Z 35009KT 17/16 A2984 RMK A01 T01660156  RH  093%=      5-min Rain = 0
KDO2 161614Z 34008KT 17/16 A2984 RMK A01 T01670156  RH  093%=      5-min Rain = 0
KDO2 161615Z 36007KT 17/16 A2984 RMK A01 T01660155  RH  093%=      5-min Rain = 0
KDO2 161616Z 36008KT 17/16 A2984 RMK A01 T01670156  RH  093%=      5-min Rain = 0
KDO2 161617Z 36008KT 17/16 A2984 RMK A01 T01670157  RH  093%=      5-min Rain = 0
KDO2 161618Z 35007KT 17/16 A2984 RMK A01 T01670156  RH  093%=      5-min Rain = 0
KDO2 161619Z 33007KT 17/16 A2984 RMK A01 T01670155  RH  093%=      5-min Rain = 0
KDO2 161620Z 34007KT 17/16 A2984 RMK A01 T01670155  RH  093%=      5-min Rain = 0
KDO2 161621Z 35007KT 17/16 A2984 RMK A01 T01670156  RH  093%=      5-min Rain = 0
KDO2 161622Z 35007KT 17/16 A2984 RMK A01 T01680156  RH  093%=      5-min Rain = 0
KDO2 161623Z 35007KT 17/16 A2984 RMK A01 T01690158  RH  093%=      5-min Rain = 0
KDO2 161624Z 34008KT 17/16 A2984 RMK A01 T01690158  RH  093%=      5-min Rain = 0
KDO2 161625Z 34009KT 17/16 A2984 RMK A01 T01690158  RH  093%=      5-min Rain = 0
KDO2 161626Z 34009KT 17/16 A2984 RMK A01 T01690157  RH  093%=      5-min Rain = 0
KDO2 161627Z 34007KT 17/16 A2984 RMK A01 T01690156  RH  092%=      5-min Rain = 0
KDO2 161628Z 34008KT 17/16 A2984 RMK A01 T01690157  RH  093%=      5-min Rain = 0
KDO2 161629Z 33008KT 17/16 A2984 RMK A01 T01690156  RH  092%=      5-min Rain = 0
KDO2 161630Z 33008KT 17/15 A2984 RMK A01 T01680154  RH  092%=      5-min Rain = 0
KDO2 161631Z 35008KT 17/16 A2984 RMK A01 T01680156  RH  092%=      5-min Rain = 0
KDO2 161632Z 35006KT 17/16 A2984 RMK A01 T01690157  RH  092%=      5-min Rain = 0
KDO2 161633Z 00007KT 17/16 A2984 RMK A01 T01690156  RH  092%=      5-min Rain = 0
KDO2 161634Z 00008KT 17/16 A2984 RMK A01 T01690157  RH  092%=      5-min Rain = 0
KDO2 161635Z 01008KT 17/16 A2984 RMK A01 T01690156  RH  092%=      5-min Rain = 0
KDO2 161636Z 01009KT 17/16 A2984 RMK A01 T01690155  RH  092%=      5-min Rain = 0
KDO2 161637Z 00009KT 17/16 A2984 RMK A01 T01680155  RH  092%=      5-min Rain = 0
KDO2 161638Z 01008KT 17/16 A2984 RMK A01 T01690155  RH  092%=      5-min Rain = 0
KDO2 161639Z 01009KT 17/16 A2984 RMK A01 T01680155  RH  092%=      5-min Rain = 0
KDO2 161640Z 01009KT 17/15 A2984 RMK A01 T01680154  RH  091%=      5-min Rain = 0
KDO2 161641Z 01009KT 17/16 A2984 RMK A01 T01690155  RH  092%=      5-min Rain = 0
KDO2 161642Z 00009KT 17/16 A2984 RMK A01 T01690155  RH  092%=      5-min Rain = 0
KDO2 161643Z 01008KT 17/16 A2984 RMK A01 T01690155  RH  091%=      5-min Rain = 0
KDO2 161644Z 36007KT 17/16 A2984 RMK A01 T01690156  RH  092%=      5-min Rain = 0
KDO2 161645Z 35008KT 17/16 A2984 RMK A01 T01710158  RH  092%=      5-min Rain = 0
KDO2 161646Z 35007KT 17/16 A2984 RMK A01 T01710159  RH  092%=      5-min Rain = 0
KDO2 161647Z 35010KT 17/16 A2984 RMK A01 T01720158  RH  092%=      5-min Rain = 0
KDO2 161648Z 34009KT 17/16 A2984 RMK A01 T01710156  RH  091%=      5-min Rain = 0
KDO2 161649Z 35008KT 17/16 A2984 RMK A01 T01710156  RH  091%=      5-min Rain = 0
KDO2 161650Z 34009KT 17/16 A2984 RMK A01 T01710158  RH  092%=      5-min Rain = 0
KDO2 161651Z 34009KT 17/16 A2984 RMK A01 T01710156  RH  091%=      5-min Rain = 0
KDO2 161652Z 34009KT 17/16 A2984 RMK A01 T01710156  RH  091%=      5-min Rain = 0
KDO2 161653Z 34007KT 17/16 A2984 RMK A01 T01700156  RH  091%=      5-min Rain = 0
KDO2 161654Z 35006KT 17/16 A2984 RMK A01 T01720159  RH  092%=      5-min Rain = 0
KDO2 161655Z 00007KT 17/16 A2984 RMK A01 T01720157  RH  091%=      5-min Rain = 0
KDO2 161656Z 36007KT 17/16 A2984 RMK A01 T01710155  RH  090%=      5-min Rain = 0
KDO2 161657Z 36007KT 17/15 A2984 RMK A01 T01710154  RH  090%=      5-min Rain = 0
KDO2 161658Z 36006KT 17/15 A2984 RMK A01 T01710154  RH  090%=      5-min Rain = 0
KDO2 161659Z 00008KT 17/15 A2984 RMK A01 T01710154  RH  090%=      5-min Rain = 0
KDO2 161700Z 01009KT 17/16 A2984 RMK A01 T01710155  RH  090%=      5-min Rain = 0
KDO2 161701Z 01008KT 17/15 A2984 RMK A01 T01710154  RH  090%=      5-min Rain = 0
KDO2 161702Z 01007KT 17/15 A2984 RMK A01 T01700153  RH  089%=      5-min Rain = 0
KDO2 161703Z 00008KT 17/15 A2984 RMK A01 T01700153  RH  090%=      5-min Rain = 0
KDO2 161704Z 36010KT 17/15 A2984 RMK A01 T01700154  RH  090%=      5-min Rain = 0
KDO2 161705Z 36010KT 17/15 A2984 RMK A01 T01700154  RH  090%=      5-min Rain = 0
KDO2 161706Z 36009KT 17/16 A2984 RMK A01 T01700155  RH  090%=      5-min Rain = 0
KDO2 161707Z 36009KT 17/16 A2984 RMK A01 T01710155  RH  091%=      5-min Rain = 0
KDO2 161708Z 36009KT 17/15 A2984 RMK A01 T01710154  RH  090%=      5-min Rain = 0
KDO2 161709Z 35008KT 17/15 A2984 RMK A01 T01700153  RH  090%=      5-min Rain = 0
KDO2 161710Z 36007KT 17/15 A2984 RMK A01 T01700153  RH  090%=      5-min Rain = 0
KDO2 161711Z 36007KT 17/15 A2984 RMK A01 T01700153  RH  090%=      5-min Rain = 0
KDO2 161712Z 36005KT 17/15 A2984 RMK A01 T01700153  RH  090%=      5-min Rain = 0
KDO2 161713Z 36006KT 17/16 A2984 RMK A01 T01710156  RH  091%=      5-min Rain = 0
KDO2 161714Z 36008KT 17/16 A2984 RMK A01 T01720155  RH  090%=      5-min Rain = 0
KDO2 161715Z 00008KT 17/15 A2984 RMK A01 T01710154  RH  090%=      5-min Rain = 0
KDO2 161716Z 36007KT 17/15 A2984 RMK A01 T01710154  RH  090%=      5-min Rain = 0
KDO2 161717Z 36008KT 17/16 A2984 RMK A01 T01710155  RH  090%=      5-min Rain = 0
KDO2 161718Z 00007KT 17/15 A2984 RMK A01 T01710154  RH  090%=      5-min Rain = 0
KDO2 161719Z 02008KT 17/15 A2984 RMK A01 T01700154  RH  090%=      5-min Rain = 0
KDO2 161720Z 02009KT 17/15 A2984 RMK A01 T01700154  RH  090%=      5-min Rain = 0
KDO2 161721Z 02009KT 17/15 A2983 RMK A01 T01700154  RH  090%=      5-min Rain = 0
KDO2 161722Z 01008KT 17/15 A2983 RMK A01 T01700154  RH  091%=      5-min Rain = 0
KDO2 161723Z 00009KT 17/16 A2983 RMK A01 T01710155  RH  091%=      5-min Rain = 0
KDO2 161724Z 00009KT 17/15 A2983 RMK A01 T01710154  RH  090%=      5-min Rain = 0
KDO2 161725Z 00008KT 17/15 A2983 RMK A01 T01700153  RH  090%=      5-min Rain = 0
KDO2 161726Z 00007KT 17/15 A2984 RMK A01 T01700153  RH  090%=      5-min Rain = 0
KDO2 161727Z 01008KT 17/15 A2984 RMK A01 T01690153  RH  090%=      5-min Rain = 0
KDO2 161728Z 01009KT 17/15 A2984 RMK A01 T01690152  RH  090%=      5-min Rain = 0
KDO2 161729Z 00009KT 17/15 A2984 RMK A01 T01690152  RH  090%=      5-min Rain = 0
KDO2 161730Z 00009KT 17/15 A2984 RMK A01 T01690151  RH  089%=      5-min Rain = 0
KDO2 161731Z 36008KT 17/15 A2984 RMK A01 T01690151  RH  089%=      5-min Rain = 0
KDO2 161732Z 36009KT 17/15 A2984 RMK A01 T01690152  RH  090%=      5-min Rain = 0
KDO2 161733Z 35009KT 17/15 A2984 RMK A01 T01690152  RH  089%=      5-min Rain = 0
KDO2 161734Z 00008KT 17/15 A2984 RMK A01 T01700151  RH  089%=      5-min Rain = 0
KDO2 161735Z 00008KT 17/15 A2984 RMK A01 T01690151  RH  089%=      5-min Rain = 0
KDO2 161736Z 00007KT 17/15 A2984 RMK A01 T01700152  RH  089%=      5-min Rain = 0
KDO2 161737Z 01007KT 17/15 A2984 RMK A01 T01710152  RH  089%=      5-min Rain = 0
KDO2 161738Z 00007KT 17/15 A2984 RMK A01 T01710151  RH  088%=      5-min Rain = 0
KDO2 161739Z 00008KT 17/15 A2984 RMK A01 T01710151  RH  088%=      5-min Rain = 0
KDO2 161740Z 36007KT 17/15 A2984 RMK A01 T01720151  RH  088%=      5-min Rain = 0
KDO2 161741Z 36006KT 17/15 A2984 RMK A01 T01720152  RH  088%=      5-min Rain = 0
KDO2 161742Z 36008KT 17/15 A2984 RMK A01 T01730153  RH  088%=      5-min Rain = 0
KDO2 161743Z 36008KT 17/15 A2984 RMK A01 T01730153  RH  088%=      5-min Rain = 0
KDO2 161744Z 36006KT 17/15 A2984 RMK A01 T01730151  RH  087%=      5-min Rain = 0
KDO2 161745Z 00007KT 17/15 A2984 RMK A01 T01730154  RH  088%=      5-min Rain = 0
KDO2 161746Z 00008KT 17/15 A2984 RMK A01 T01730151  RH  087%=      5-min Rain = 0
KDO2 161747Z 00007KT 17/15 A2984 RMK A01 T01730153  RH  088%=      5-min Rain = 0
KDO2 161748Z 01007KT 17/15 A2984 RMK A01 T01730152  RH  087%=      5-min Rain = 0
KDO2 161749Z 00006KT 17/15 A2984 RMK A01 T01730152  RH  088%=      5-min Rain = 0
KDO2 161750Z 01007KT 17/16 A2984 RMK A01 T01740155  RH  089%=      5-min Rain = 0
KDO2 161751Z 01008KT 17/15 A2984 RMK A01 T01740154  RH  088%=      5-min Rain = 0
KDO2 161752Z 01008KT 17/15 A2984 RMK A01 T01730151  RH  087%=      5-min Rain = 0
KDO2 161753Z 01009KT 17/15 A2984 RMK A01 T01730152  RH  088%=      5-min Rain = 0
KDO2 161754Z 01009KT 17/15 A2984 RMK A01 T01720151  RH  087%=      5-min Rain = 0
KDO2 161755Z 01009KT 17/15 A2984 RMK A01 T01720151  RH  087%=      5-min Rain = 0
KDO2 161756Z 01009KT 17/15 A2984 RMK A01 T01720150  RH  087%=      5-min Rain = 0
KDO2 161757Z 35008KT 17/15 A2984 RMK A01 T01720150  RH  087%=      5-min Rain = 0
KDO2 161758Z 34008KT 17/15 A2984 RMK A01 T01720151  RH  087%=      5-min Rain = 0
KDO2 161759Z 34008KT 17/15 A2984 RMK A01 T01720151  RH  087%=      5-min Rain = 0
KDO2 161800Z 34007KT 17/15 A2984 RMK A01 T01730152  RH  088%=      5-min Rain = 0
KDO2 161801Z 35008KT 17/15 A2984 RMK A01 T01730151  RH  087%=      5-min Rain = 0
KDO2 161802Z 34008KT 17/15 A2984 RMK A01 T01730151  RH  087%=      5-min Rain = 0
KDO2 161803Z 34009KT 17/15 A2984 RMK A01 T01730152  RH  087%=      5-min Rain = 0
KDO2 161804Z 00010KT 17/15 A2984 RMK A01 T01730152  RH  087%=      5-min Rain = 0
KDO2 161805Z 36010KT 17/15 A2984 RMK A01 T01730152  RH  087%=      5-min Rain = 0
KDO2 161806Z 36010KT 17/15 A2984 RMK A01 T01710151  RH  088%=      5-min Rain = 0
KDO2 161807Z 00009KT 17/15 A2984 RMK A01 T01710152  RH  088%=      5-min Rain = 0
KDO2 161808Z 00010KT 17/15 A2984 RMK A01 T01710151  RH  088%=      5-min Rain = 0
KDO2 161809Z 01009KT 17/15 A2984 RMK A01 T01710151  RH  088%=      5-min Rain = 0
KDO2 161810Z 34009KT 17/15 A2984 RMK A01 T01710152  RH  089%=      5-min Rain = 0
KDO2 161811Z 34010KT 17/15 A2984 RMK A01 T01710150  RH  088%=      5-min Rain = 0
KDO2 161812Z 34010KT 17/15 A2984 RMK A01 T01710150  RH  087%=      5-min Rain = 0
KDO2 161813Z 35009KT 17/15 A2985 RMK A01 T01710151  RH  088%=      5-min Rain = 0
KDO2 161814Z 34009KT 17/15 A2985 RMK A01 T01710150  RH  087%=      5-min Rain = 0
KDO2 161815Z 34009KT 17/15 A2985 RMK A01 T01710149  RH  087%=      5-min Rain = 0
KDO2 161816Z 35008KT 17/15 A2985 RMK A01 T01710149  RH  087%=      5-min Rain = 0
KDO2 161817Z 35009KT 17/15 A2985 RMK A01 T01710150  RH  087%=      5-min Rain = 0
KDO2 161818Z 36008KT 17/15 A2985 RMK A01 T01710149  RH  087%=      5-min Rain = 0
KDO2 161819Z 35007KT 17/15 A2985 RMK A01 T01720152  RH  088%=      5-min Rain = 0
KDO2 161820Z 35007KT 17/15 A2985 RMK A01 T01730152  RH  087%=      5-min Rain = 0
KDO2 161821Z 35008KT 17/15 A2985 RMK A01 T01730151  RH  087%=      5-min Rain = 0
KDO2 161822Z 33009KT 17/15 A2985 RMK A01 T01730150  RH  086%=      5-min Rain = 0
KDO2 161823Z 32009KT 17/15 A2985 RMK A01 T01730151  RH  087%=      5-min Rain = 0
KDO2 161824Z 33008KT 17/15 A2985 RMK A01 T01730150  RH  086%=      5-min Rain = 0
KDO2 161825Z 34010KT 17/15 A2985 RMK A01 T01730150  RH  086%=      5-min Rain = 0
KDO2 161826Z 35009KT 17/15 A2985 RMK A01 T01730149  RH  086%=      5-min Rain = 0
KDO2 161827Z 34008KT 17/15 A2985 RMK A01 T01730149  RH  086%=      5-min Rain = 0
KDO2 161828Z 34007KT 17/15 A2985 RMK A01 T01730149  RH  086%=      5-min Rain = 0
KDO2 161829Z 33007KT 17/15 A2985 RMK A01 T01730152  RH  087%=      5-min Rain = 0
KDO2 161830Z 33009KT 17/15 A2985 RMK A01 T01740151  RH  086%=      5-min Rain = 0
KDO2 161831Z 33009KT 17/15 A2985 RMK A01 T01740150  RH  086%=      5-min Rain = 0
KDO2 161832Z 34009KT 17/15 A2985 RMK A01 T01730149  RH  085%=      5-min Rain = 0
KDO2 161833Z 35010KT 17/15 A2985 RMK A01 T01730149  RH  086%=      5-min Rain = 0
KDO2 161834Z 34010KT 17/15 A2985 RMK A01 T01730150  RH  086%=      5-min Rain = 0
KDO2 161835Z 34010KT 17/15 A2985 RMK A01 T01740149  RH  085%=      5-min Rain = 0
KDO2 161836Z 35011KT 17/15 A2985 RMK A01 T01740148  RH  085%=      5-min Rain = 0
KDO2 161837Z 35011KT 17/15 A2985 RMK A01 T01740148  RH  085%=      5-min Rain = 0
KDO2 161838Z 34010KT 17/15 A2985 RMK A01 T01740148  RH  085%=      5-min Rain = 0
KDO2 161839Z 34008KT 18/15 A2985 RMK A01 T01750148  RH  085%=      5-min Rain = 0
KDO2 161840Z 34009KT 18/15 A2985 RMK A01 T01760151  RH  085%=      5-min Rain = 0
KDO2 161841Z 33011KT 18/15 A2985 RMK A01 T01760150  RH  084%=      5-min Rain = 0
KDO2 161842Z 33010KT 18/15 A2985 RMK A01 T01760149  RH  084%=      5-min Rain = 0
KDO2 161843Z 33010KT 18/15 A2985 RMK A01 T01770149  RH  084%=      5-min Rain = 0
KDO2 161844Z 33012KT 18/15 A2985 RMK A01 T01770149  RH  084%=      5-min Rain = 0
KDO2 161845Z 33011KT 18/15 A2985 RMK A01 T01770148  RH  083%=      5-min Rain = 0
KDO2 161846Z 34010KT 18/15 A2985 RMK A01 T01770149  RH  083%=      5-min Rain = 0
KDO2 161847Z 34011KT 18/15 A2985 RMK A01 T01780147  RH  082%=      5-min Rain = 0
KDO2 161848Z 34010KT 18/15 A2985 RMK A01 T01780147  RH  082%=      5-min Rain = 0
KDO2 161849Z 34009KT 18/15 A2985 RMK A01 T01780146  RH  082%=      5-min Rain = 0
KDO2 161850Z 34009KT 18/15 A2985 RMK A01 T01780147  RH  082%=      5-min Rain = 0
KDO2 161851Z 35010KT 18/15 A2985 RMK A01 T01780148  RH  083%=      5-min Rain = 0
KDO2 161852Z 35010KT 18/15 A2985 RMK A01 T01790150  RH  083%=      5-min Rain = 0
KDO2 161853Z 34009KT 18/15 A2985 RMK A01 T01800147  RH  081%=      5-min Rain = 0
KDO2 161854Z 33010KT 18/15 A2985 RMK A01 T01800151  RH  083%=      5-min Rain = 0
KDO2 161855Z 33010KT 18/15 A2985 RMK A01 T01800150  RH  082%=      5-min Rain = 0
KDO2 161856Z 32010KT 18/15 A2985 RMK A01 T01810151  RH  083%=      5-min Rain = 0
KDO2 161857Z 33010KT 18/15 A2985 RMK A01 T01810150  RH  082%=      5-min Rain = 0
KDO2 161858Z 33010KT 18/15 A2985 RMK A01 T01810149  RH  082%=      5-min Rain = 0
KDO2 161859Z 34012KT 18/15 A2985 RMK A01 T01810150  RH  082%=      5-min Rain = 0
KDO2 161900Z 33012KT 18/15 A2985 RMK A01 T01810148  RH  081%=      5-min Rain = 0
KDO2 161901Z 34010KT 18/15 A2985 RMK A01 T01800146  RH  081%=      5-min Rain = 0
KDO2 161902Z 34012KT 18/15 A2985 RMK A01 T01790148  RH  082%=      5-min Rain = 0
KDO2 161903Z 34011KT 18/15 A2985 RMK A01 T01790147  RH  081%=      5-min Rain = 0
KDO2 161904Z 34012KT 18/15 A2985 RMK A01 T01790146  RH  081%=      5-min Rain = 0
KDO2 161905Z 34011KT 18/14 A2985 RMK A01 T01780144  RH  080%=      5-min Rain = 0
KDO2 161906Z 33012KT 18/15 A2985 RMK A01 T01780146  RH  082%=      5-min Rain = 0
KDO2 161907Z 33011KT 18/15 A2985 RMK A01 T01780146  RH  082%=      5-min Rain = 0
KDO2 161908Z 34013KT 18/15 A2985 RMK A01 T01780146  RH  082%=      5-min Rain = 0
KDO2 161909Z 33012KT 18/14 A2985 RMK A01 T01770144  RH  081%=      5-min Rain = 0
KDO2 161910Z 33012KT 18/15 A2985 RMK A01 T01770145  RH  082%=      5-min Rain = 0
KDO2 161911Z 34012KT 18/15 A2985 RMK A01 T01760145  RH  082%=      5-min Rain = 0
KDO2 161912Z 34012KT 18/14 A2986 RMK A01 T01760144  RH  082%=      5-min Rain = 0
KDO2 161913Z 35011KT 18/14 A2986 RMK A01 T01750143  RH  082%=      5-min Rain = 0
KDO2 161914Z 35011KT 18/15 A2986 RMK A01 T01750145  RH  082%=      5-min Rain = 0
KDO2 161915Z 34010KT 18/14 A2986 RMK A01 T01750144  RH  082%=      5-min Rain = 0
KDO2 161916Z 34009KT 18/14 A2986 RMK A01 T01750144  RH  082%=      5-min Rain = 0
KDO2 161917Z 34010KT 18/15 A2986 RMK A01 T01750146  RH  083%=      5-min Rain = 0
KDO2 161918Z 34011KT 18/14 A2986 RMK A01 T01750143  RH  081%=      5-min Rain = 0
KDO2 161919Z 34009KT 18/14 A2986 RMK A01 T01750143  RH  082%=      5-min Rain = 0
KDO2 161920Z 33012KT 17/14 A2986 RMK A01 T01740144  RH  082%=      5-min Rain = 0
KDO2 161921Z 33011KT 17/14 A2986 RMK A01 T01740142  RH  081%=      5-min Rain = 0
KDO2 161922Z 34010KT 17/14 A2986 RMK A01 T01740144  RH  083%=      5-min Rain = 0
KDO2 161923Z 34009KT 17/15 A2986 RMK A01 T01740146  RH  083%=      5-min Rain = 0
KDO2 161924Z 33009KT 17/15 A2986 RMK A01 T01740145  RH  083%=      5-min Rain = 0
KDO2 161925Z 34009KT 17/15 A2986 RMK A01 T01740145  RH  083%=      5-min Rain = 0
KDO2 161926Z 34011KT 18/14 A2986 RMK A01 T01750144  RH  082%=      5-min Rain = 0
KDO2 161927Z 33012KT 18/14 A2986 RMK A01 T01750143  RH  082%=      5-min Rain = 0
KDO2 161928Z 33011KT 17/14 A2986 RMK A01 T01730143  RH  082%=      5-min Rain = 0
KDO2 161929Z 33011KT 17/14 A2986 RMK A01 T01740143  RH  082%=      5-min Rain = 0
KDO2 161930Z 32010KT 17/14 A2986 RMK A01 T01730143  RH  082%=      5-min Rain = 0
KDO2 161931Z 32013KT 17/14 A2986 RMK A01 T01730142  RH  082%=      5-min Rain = 0
KDO2 161932Z 33012KT 17/14 A2986 RMK A01 T01720141  RH  082%=      5-min Rain = 0
KDO2 161933Z 33013KT 17/14 A2986 RMK A01 T01720140  RH  082%=      5-min Rain = 0
KDO2 161934Z 33012KT 17/14 A2986 RMK A01 T01720141  RH  082%=      5-min Rain = 0
KDO2 161935Z 33014KT 17/14 A2986 RMK A01 T01720139  RH  081%=      5-min Rain = 0
KDO2 161936Z 33014KT 17/14 A2986 RMK A01 T01710139  RH  081%=      5-min Rain = 0
KDO2 161937Z 33013KT 17/14 A2986 RMK A01 T01710138  RH  081%=      5-min Rain = 0
KDO2 161938Z 33012KT 17/14 A2986 RMK A01 T01710140  RH  082%=      5-min Rain = 0
KDO2 161939Z 32012KT 17/14 A2986 RMK A01 T01710140  RH  082%=      5-min Rain = 0
KDO2 161940Z 33014KT 17/14 A2986 RMK A01 T01710140  RH  082%=      5-min Rain = 0
KDO2 161941Z 33014KT 17/14 A2986 RMK A01 T01710138  RH  081%=      5-min Rain = 0
KDO2 161942Z 33014KT 17/14 A2986 RMK A01 T01700138  RH  081%=      5-min Rain = 0
KDO2 161943Z 33014KT 17/14 A2986 RMK A01 T01700138  RH  081%=      5-min Rain = 0
KDO2 161944Z 32013KT 17/14 A2986 RMK A01 T01700137  RH  081%=      5-min Rain = 0
KDO2 161945Z 33013KT 17/14 A2986 RMK A01 T01700137  RH  081%=      5-min Rain = 0
KDO2 161946Z 33013KT 17/14 A2986 RMK A01 T01700138  RH  081%=      5-min Rain = 0
KDO2 161947Z 33013KT 17/14 A2986 RMK A01 T01700137  RH  081%=      5-min Rain = 0
KDO2 161948Z 33015KT 17/14 A2986 RMK A01 T01700136  RH  081%=      5-min Rain = 0
KDO2 161949Z 33013KT 17/14 A2986 RMK A01 T01690135  RH  080%=      5-min Rain = 0
KDO2 161950Z 33012KT 17/14 A2986 RMK A01 T01690135  RH  080%=      5-min Rain = 0
KDO2 161951Z 34011KT 17/14 A2986 RMK A01 T01690136  RH  081%=      5-min Rain = 0
KDO2 161952Z 35011KT 17/14 A2986 RMK A01 T01700137  RH  081%=      5-min Rain = 0
KDO2 161953Z 34014KT 17/14 A2987 RMK A01 T01700136  RH  080%=      5-min Rain = 0
KDO2 161954Z 33015KT 17/14 A2987 RMK A01 T01700135  RH  080%=      5-min Rain = 0
KDO2 161955Z 34015KT 17/13 A2987 RMK A01 T01690133  RH  079%=      5-min Rain = 0
KDO2 161956Z 34015KT 17/13 A2987 RMK A01 T01690134  RH  080%=      5-min Rain = 0
KDO2 161957Z 34015KT 17/13 A2987 RMK A01 T01680133  RH  080%=      5-min Rain = 0
KDO2 161958Z 34014KT 17/13 A2987 RMK A01 T01680133  RH  080%=      5-min Rain = 0
KDO2 161959Z 34014KT 17/13 A2987 RMK A01 T01670133  RH  080%=      5-min Rain = 0
KDO2 162000Z 34015KT 17/13 A2987 RMK A01 T01670133  RH  080%=      5-min Rain = 0
KDO2 162001Z 34015KT 17/13 A2987 RMK A01 T01680132  RH  080%=      5-min Rain = 0
KDO2 162002Z 34016KT 17/13 A2987 RMK A01 T01670132  RH  080%=      5-min Rain = 0
KDO2 162003Z 34015KT 17/13 A2987 RMK A01 T01670131  RH  079%=      5-min Rain = 0
KDO2 162004Z 34016KT 17/13 A2987 RMK A01 T01660131  RH  080%=      5-min Rain = 0
KDO2 162005Z 34016KT 17/13 A2987 RMK A01 T01660130  RH  080%=      5-min Rain = 0
KDO2 162006Z 34016KT 17/13 A2987 RMK A01 T01650130  RH  080%=      5-min Rain = 0
KDO2 162007Z 33014KT 16/13 A2987 RMK A01 T01640130  RH  080%=      5-min Rain = 0
KDO2 162008Z 33014KT 16/13 A2987 RMK A01 T01640131  RH  081%=      5-min Rain = 0
KDO2 162009Z 33015KT 16/13 A2987 RMK A01 T01640131  RH  080%=      5-min Rain = 0
KDO2 162010Z 34016KT 16/13 A2987 RMK A01 T01640130  RH  080%=      5-min Rain = 0
KDO2 162011Z 34013KT 16/13 A2987 RMK A01 T01640131  RH  081%=      5-min Rain = 0
KDO2 162012Z 34012KT 17/13 A2987 RMK A01 T01650132  RH  081%=      5-min Rain = 0
KDO2 162013Z 33014KT 17/13 A2987 RMK A01 T01650131  RH  080%=      5-min Rain = 0
KDO2 162014Z 33015KT 16/13 A2987 RMK A01 T01640130  RH  080%=      5-min Rain = 0
KDO2 162015Z 34016KT 16/13 A2987 RMK A01 T01640130  RH  080%=      5-min Rain = 0
KDO2 162016Z 34015KT 16/13 A2987 RMK A01 T01640130  RH  080%=      5-min Rain = 0
KDO2 162017Z 34014KT 16/13 A2987 RMK A01 T01640130  RH  080%=      5-min Rain = 0
KDO2 162018Z 34012KT 17/13 A2987 RMK A01 T01650133  RH  081%=      5-min Rain = 0
KDO2 162019Z 33012KT 17/14 A2987 RMK A01 T01670135  RH  081%=      5-min Rain = 0
KDO2 162020Z 34016KT 17/13 A2987 RMK A01 T01680131  RH  079%=      5-min Rain = 0
KDO2 162021Z 34013KT 17/13 A2987 RMK A01 T01660129  RH  079%=      5-min Rain = 0
KDO2 162022Z 33013KT 17/13 A2987 RMK A01 T01650130  RH  080%=      5-min Rain = 0
KDO2 162023Z 34012KT 17/13 A2987 RMK A01 T01660131  RH  080%=      5-min Rain = 0
KDO2 162024Z 33014KT 17/13 A2987 RMK A01 T01660131  RH  080%=      5-min Rain = 0
KDO2 162025Z 33013KT 17/13 A2987 RMK A01 T01650129  RH  079%=      5-min Rain = 0
KDO2 162026Z 33013KT 16/13 A2987 RMK A01 T01640129  RH  079%=      5-min Rain = 0
KDO2 162027Z 34012KT 16/13 A2986 RMK A01 T01640130  RH  080%=      5-min Rain = 0
KDO2 162028Z 34014KT 16/13 A2986 RMK A01 T01640129  RH  080%=      5-min Rain = 0
KDO2 162029Z 34014KT 16/13 A2986 RMK A01 T01640129  RH  080%=      5-min Rain = 0
KDO2 162030Z 34013KT 16/13 A2986 RMK A01 T01640130  RH  080%=      5-min Rain = 0
KDO2 162031Z 34014KT 17/13 A2986 RMK A01 T01650130  RH  080%=      5-min Rain = 0
KDO2 162032Z 34013KT 17/13 A2986 RMK A01 T01650129  RH  079%=      5-min Rain = 0
KDO2 162033Z 33010KT 16/13 A2986 RMK A01 T01640130  RH  080%=      5-min Rain = 0
KDO2 162034Z 33013KT 17/13 A2987 RMK A01 T01660132  RH  080%=      5-min Rain = 0
KDO2 162035Z 33015KT 17/13 A2987 RMK A01 T01660129  RH  079%=      5-min Rain = 0
KDO2 162036Z 33015KT 17/13 A2987 RMK A01 T01650128  RH  079%=      5-min Rain = 0
KDO2 162037Z 34017KT 17/13 A2987 RMK A01 T01650128  RH  079%=      5-min Rain = 0
KDO2 162038Z 33018KT 16/13 A2987 RMK A01 T01640128  RH  079%=      5-min Rain = 0
KDO2 162039Z 33016KT 16/13 A2987 RMK A01 T01630127  RH  079%=      5-min Rain = 0
KDO2 162040Z 33015KT 16/13 A2987 RMK A01 T01630126  RH  079%=      5-min Rain = 0
KDO2 162041Z 34014G19KT 16/13 A2987 RMK A01 T01630126  RH  079%=      5-min Rain = 0
KDO2 162042Z 34016KT 16/13 A2987 RMK A01 T01620125  RH  078%=      5-min Rain = 0
KDO2 162043Z 33013KT 16/12 A2987 RMK A01 T01620124  RH  079%=      5-min Rain = 0
KDO2 162044Z 32014KT 16/13 A2987 RMK A01 T01610126  RH  079%=      5-min Rain = 0
KDO2 162045Z 32014KT 16/13 A2987 RMK A01 T01610125  RH  079%=      5-min Rain = 0
KDO2 162046Z 33014KT 16/13 A2987 RMK A01 T01610125  RH  079%=      5-min Rain = 0
KDO2 162047Z 33016KT 16/13 A2987 RMK A01 T01610125  RH  080%=      5-min Rain = 0
KDO2 162048Z 33016KT 16/12 A2987 RMK A01 T01610124  RH  079%=      5-min Rain = 0
KDO2 162049Z 33015KT 16/12 A2987 RMK A01 T01600123  RH  079%=      5-min Rain = 0
KDO2 162050Z 33014KT 16/12 A2987 RMK A01 T01590123  RH  079%=      5-min Rain = 0
KDO2 162051Z 32016KT 16/12 A2987 RMK A01 T01590123  RH  079%=      5-min Rain = 0
KDO2 162052Z 34013KT 16/12 A2987 RMK A01 T01580123  RH  080%=      5-min Rain = 0
KDO2 162053Z 33017KT 16/12 A2987 RMK A01 T01580122  RH  079%=      5-min Rain = 0
KDO2 162054Z 33015KT 16/12 A2987 RMK A01 T01580120  RH  078%=      5-min Rain = 0
KDO2 162055Z 33013KT 16/12 A2987 RMK A01 T01570121  RH  079%=      5-min Rain = 0
KDO2 162056Z 34012KT 16/12 A2987 RMK A01 T01580122  RH  079%=      5-min Rain = 0
KDO2 162057Z 34015KT 16/12 A2987 RMK A01 T01590122  RH  079%=      5-min Rain = 0
KDO2 162058Z 34015KT 16/12 A2987 RMK A01 T01580120  RH  078%=      5-min Rain = 0
KDO2 162059Z 33015KT 16/12 A2987 RMK A01 T01570119  RH  078%=      5-min Rain = 0
KDO2 162100Z 33015KT 16/12 A2987 RMK A01 T01570121  RH  079%=      5-min Rain = 0
KDO2 162101Z 33015KT 16/12 A2987 RMK A01 T01570121  RH  079%=      5-min Rain = 0
KDO2 162102Z 33014KT 16/12 A2987 RMK A01 T01560120  RH  079%=      5-min Rain = 0
KDO2 162103Z 34013KT 16/12 A2987 RMK A01 T01570122  RH  079%=      5-min Rain = 0
KDO2 162104Z 34013KT 16/12 A2987 RMK A01 T01580122  RH  079%=      5-min Rain = 0
KDO2 162105Z 33014KT 16/12 A2987 RMK A01 T01580121  RH  078%=      5-min Rain = 0
KDO2 162106Z 33016KT 16/12 A2987 RMK A01 T01590120  RH  078%=      5-min Rain = 0
KDO2 162107Z 33015KT 16/12 A2987 RMK A01 T01570119  RH  078%=      5-min Rain = 0
KDO2 162108Z 34017KT 16/12 A2987 RMK A01 T01570119  RH  078%=      5-min Rain = 0
KDO2 162109Z 34014KT 16/12 A2987 RMK A01 T01570120  RH  079%=      5-min Rain = 0
KDO2 162110Z 33014KT 16/12 A2987 RMK A01 T01580122  RH  079%=      5-min Rain = 0
KDO2 162111Z 34015KT 16/12 A2987 RMK A01 T01590122  RH  078%=      5-min Rain = 0
KDO2 162112Z 33016KT 16/12 A2987 RMK A01 T01590120  RH  078%=      5-min Rain = 0
KDO2 162113Z 34016KT 16/12 A2987 RMK A01 T01580119  RH  078%=      5-min Rain = 0
KDO2 162114Z 33016KT 16/12 A2987 RMK A01 T01580120  RH  078%=      5-min Rain = 0
KDO2 162115Z 33015KT 16/12 A2987 RMK A01 T01580120  RH  078%=      5-min Rain = 0
KDO2 162116Z 33017KT 16/12 A2987 RMK A01 T01570119  RH  078%=      5-min Rain = 0
KDO2 162117Z 33019KT 16/12 A2988 RMK A01 T01560118  RH  078%=      5-min Rain = 0
KDO2 162118Z 33017KT 16/12 A2988 RMK A01 T01550117  RH  078%=      5-min Rain = 0
KDO2 162119Z 33017KT 15/12 A2988 RMK A01 T01540116  RH  078%=      5-min Rain = 0
KDO2 162120Z 33015KT 15/12 A2988 RMK A01 T01530116  RH  078%=      5-min Rain = 0
KDO2 162121Z 33016KT 15/12 A2988 RMK A01 T01530116  RH  079%=      5-min Rain = 0
KDO2 162122Z 33015KT 15/12 A2988 RMK A01 T01530117  RH  079%=      5-min Rain = 0
KDO2 162123Z 34014KT 15/12 A2988 RMK A01 T01540117  RH  079%=      5-min Rain = 0
KDO2 162124Z 34015KT 15/12 A2988 RMK A01 T01540117  RH  079%=      5-min Rain = 0
KDO2 162125Z 34015KT 15/12 A2988 RMK A01 T01540116  RH  078%=      5-min Rain = 0
KDO2 162126Z 34016KT 16/11 A2988 RMK A01 T01550114  RH  077%=      5-min Rain = 0
KDO2 162127Z 34018KT 16/11 A2988 RMK A01 T01550113  RH  076%=      5-min Rain = 0
KDO2 162128Z 34015KT 15/11 A2988 RMK A01 T01530112  RH  076%=      5-min Rain = 0
KDO2 162129Z 34016KT 15/11 A2988 RMK A01 T01530113  RH  077%=      5-min Rain = 0
KDO2 162130Z 33017KT 15/11 A2988 RMK A01 T01530112  RH  077%=      5-min Rain = 0
KDO2 162131Z 34016KT 15/11 A2988 RMK A01 T01530112  RH  077%=      5-min Rain = 0
KDO2 162132Z 34015KT 15/11 A2988 RMK A01 T01530113  RH  077%=      5-min Rain = 0
KDO2 162133Z 34015KT 15/11 A2988 RMK A01 T01540114  RH  077%=      5-min Rain = 0
KDO2 162134Z 34016KT 15/11 A2988 RMK A01 T01540112  RH  076%=      5-min Rain = 0
KDO2 162135Z 34016KT 15/11 A2989 RMK A01 T01530112  RH  076%=      5-min Rain = 0
KDO2 162136Z 34017KT 15/11 A2989 RMK A01 T01530112  RH  076%=      5-min Rain = 0
KDO2 162137Z 34017KT 15/11 A2989 RMK A01 T01530112  RH  076%=      5-min Rain = 0
KDO2 162138Z 35016KT 15/11 A2989 RMK A01 T01530111  RH  076%=      5-min Rain = 0
KDO2 162139Z 34015KT 15/11 A2989 RMK A01 T01520111  RH  076%=      5-min Rain = 0
KDO2 162140Z 34013KT 15/11 A2989 RMK A01 T01520112  RH  077%=      5-min Rain = 0
KDO2 162141Z 34013KT 15/11 A2989 RMK A01 T01530112  RH  077%=      5-min Rain = 0
KDO2 162142Z 34016KT 15/11 A2989 RMK A01 T01520112  RH  077%=      5-min Rain = 0
KDO2 162143Z 34016KT 15/11 A2989 RMK A01 T01520113  RH  078%=      5-min Rain = 0
KDO2 162144Z 34014KT 15/11 A2989 RMK A01 T01510113  RH  078%=      5-min Rain = 0
KDO2 162145Z 34015KT 15/11 A2989 RMK A01 T01510113  RH  078%=      5-min Rain = 0
KDO2 162146Z 35015KT 15/11 A2989 RMK A01 T01500111  RH  077%=      5-min Rain = 0
KDO2 162147Z 34016KT 15/11 A2989 RMK A01 T01500112  RH  078%=      5-min Rain = 0
KDO2 162148Z 34017KT 15/11 A2989 RMK A01 T01500110  RH  077%=      5-min Rain = 0
KDO2 162149Z 34015KT 15/11 A2989 RMK A01 T01500111  RH  077%=      5-min Rain = 0
KDO2 162150Z 35015KT 15/11 A299 RMK A01 T01500111  RH  077%=      5-min Rain = 0
KDO2 162151Z 34014KT 15/11 A299 RMK A01 T01500110  RH  077%=      5-min Rain = 0
KDO2 162152Z 33015KT 15/11 A299 RMK A01 T01490110  RH  077%=      5-min Rain = 0
KDO2 162153Z 34014KT 15/11 A299 RMK A01 T01490110  RH  077%=      5-min Rain = 0
KDO2 162154Z 34014KT 15/11 A299 RMK A01 T01490110  RH  077%=      5-min Rain = 0
KDO2 162155Z 34013KT 15/11 A2989 RMK A01 T01490109  RH  077%=      5-min Rain = 0
KDO2 162156Z 35011KT 15/11 A2989 RMK A01 T01490110  RH  077%=      5-min Rain = 0
KDO2 162157Z 35013G18KT 15/11 A2989 RMK A01 T01500110  RH  077%=      5-min Rain = 0
KDO2 162158Z 35015KT 15/11 A2989 RMK A01 T01500108  RH  076%=      5-min Rain = 0
KDO2 162159Z 35012KT 15/11 A2989 RMK A01 T01490107  RH  076%=      5-min Rain = 0
KDO2 162200Z 35013KT 15/11 A2989 RMK A01 T01490107  RH  076%=      5-min Rain = 0
KDO2 162201Z 34014KT 15/11 A2989 RMK A01 T01480106  RH  076%=      5-min Rain = 0
KDO2 162202Z 35012KT 15/11 A2989 RMK A01 T01480106  RH  076%=      5-min Rain = 0
KDO2 162203Z 35013KT 15/11 A2989 RMK A01 T01480106  RH  076%=      5-min Rain = 0
KDO2 162204Z 34013KT 15/11 A2989 RMK A01 T01470106  RH  076%=      5-min Rain = 0
KDO2 162205Z 34012KT 15/11 A2989 RMK A01 T01470106  RH  076%=      5-min Rain = 0
KDO2 162206Z 35012KT 15/11 A299 RMK A01 T01480107  RH  077%=      5-min Rain = 0
KDO2 162207Z 35010KT 15/11 A299 RMK A01 T01480108  RH  077%=      5-min Rain = 0
KDO2 162208Z 35012KT 15/11 A299 RMK A01 T01480107  RH  076%=      5-min Rain = 0
KDO2 162209Z 35016KT 15/11 A299 RMK A01 T01480106  RH  076%=      5-min Rain = 0
KDO2 162210Z 36013KT 15/11 A299 RMK A01 T01480105  RH  075%=      5-min Rain = 0
KDO2 162211Z 00014KT 15/11 A299 RMK A01 T01470105  RH  076%=      5-min Rain = 0
KDO2 162212Z 35015KT 15/10 A299 RMK A01 T01460104  RH  076%=      5-min Rain = 0
KDO2 162213Z 35014KT 15/10 A299 RMK A01 T01460104  RH  076%=      5-min Rain = 0
KDO2 162214Z 36014KT 15/10 A299 RMK A01 T01450103  RH  076%=      5-min Rain = 0
KDO2 162215Z 35012KT 15/10 A299 RMK A01 T01450103  RH  076%=      5-min Rain = 0
KDO2 162216Z 35014KT 15/10 A299 RMK A01 T01450104  RH  076%=      5-min Rain = 0
KDO2 162217Z 34015KT 15/10 A299 RMK A01 T01450104  RH  076%=      5-min Rain = 0
KDO2 162218Z 34016KT 15/10 A299 RMK A01 T01450103  RH  076%=      5-min Rain = 0
KDO2 162219Z 34015KT 14/10 A299 RMK A01 T01440103  RH  076%=      5-min Rain = 0
KDO2 162220Z 34014KT 14/10 A299 RMK A01 T01440103  RH  076%=      5-min Rain = 0
KDO2 162221Z 34015KT 14/10 A299 RMK A01 T01440103  RH  076%=      5-min Rain = 0
KDO2 162222Z 34015KT 14/10 A299 RMK A01 T01440104  RH  077%=      5-min Rain = 0
KDO2 162223Z 35012KT 14/10 A299 RMK A01 T01440104  RH  077%=      5-min Rain = 0
KDO2 162224Z 35013KT 14/10 A299 RMK A01 T01440104  RH  076%=      5-min Rain = 0
KDO2 162225Z 35014KT 14/10 A299 RMK A01 T01440102  RH  076%=      5-min Rain = 0
KDO2 162226Z 34014KT 14/10 A299 RMK A01 T01440102  RH  076%=      5-min Rain = 0
KDO2 162227Z 34014KT 14/10 A2991 RMK A01 T01440102  RH  076%=      5-min Rain = 0
KDO2 162228Z 35014KT 14/10 A2991 RMK A01 T01440103  RH  076%=      5-min Rain = 0
KDO2 162229Z 35015KT 14/10 A2991 RMK A01 T01440103  RH  076%=      5-min Rain = 0
KDO2 162230Z 35014KT 14/10 A2991 RMK A01 T01430102  RH  076%=      5-min Rain = 0
KDO2 162231Z 35013KT 14/10 A2991 RMK A01 T01430102  RH  076%=      5-min Rain = 0
KDO2 162232Z 35013KT 14/10 A2991 RMK A01 T01420102  RH  077%=      5-min Rain = 0
KDO2 162233Z 35013KT 14/10 A2991 RMK A01 T01420102  RH  077%=      5-min Rain = 0
KDO2 162234Z 34013KT 14/10 A2992 RMK A01 T01420102  RH  077%=      5-min Rain = 0
KDO2 162235Z 34014KT 14/10 A2992 RMK A01 T01420101  RH  076%=      5-min Rain = 0
KDO2 162236Z 34016KT 14/10 A2992 RMK A01 T01430101  RH  076%=      5-min Rain = 0
KDO2 162237Z 34016KT 14/10 A2992 RMK A01 T01420101  RH  076%=      5-min Rain = 0
KDO2 162238Z 34014KT 14/10 A2992 RMK A01 T01420100  RH  076%=      5-min Rain = 0
KDO2 162239Z 34015KT 14/10 A2992 RMK A01 T01420100  RH  076%=      5-min Rain = 0
KDO2 162240Z 34015KT 14/10 A2992 RMK A01 T01410100  RH  076%=      5-min Rain = 0
KDO2 162241Z 34014KT 14/10 A2992 RMK A01 T01410101  RH  076%=      5-min Rain = 0
KDO2 162242Z 34013KT 14/10 A2992 RMK A01 T01420101  RH  076%=      5-min Rain = 0
KDO2 162243Z 35012KT 14/10 A2992 RMK A01 T01410101  RH  076%=      5-min Rain = 0
KDO2 162244Z 00012G17KT 14/10 A2992 RMK A01 T01410100  RH  076%=      5-min Rain = 0
KDO2 162245Z 01014KT 14/10 A2992 RMK A01 T01410099  RH  076%=      5-min Rain = 0
KDO2 162246Z 00012KT 14/10 A2992 RMK A01 T01410099  RH  076%=      5-min Rain = 0
KDO2 162247Z 00012KT 14/10 A2992 RMK A01 T01410100  RH  076%=      5-min Rain = 0
KDO2 162248Z 35012KT 14/10 A2992 RMK A01 T01420100  RH  076%=      5-min Rain = 0
KDO2 162249Z 00012KT 14/10 A2992 RMK A01 T01420100  RH  076%=      5-min Rain = 0
KDO2 162250Z 36013KT 14/10 A2992 RMK A01 T01420100  RH  076%=      5-min Rain = 0
KDO2 162251Z 35012KT 14/10 A2992 RMK A01 T01420100  RH  076%=      5-min Rain = 0
KDO2 162252Z 00012KT 14/10 A2992 RMK A01 T01420101  RH  076%=      5-min Rain = 0
KDO2 162253Z 36013KT 14/10 A2992 RMK A01 T01420100  RH  076%=      5-min Rain = 0
KDO2 162254Z 00011KT 14/10 A2992 RMK A01 T01420101  RH  076%=      5-min Rain = 0
KDO2 162255Z 00013KT 14/10 A2992 RMK A01 T01420101  RH  076%=      5-min Rain = 0
KDO2 162256Z 00012KT 14/10 A2992 RMK A01 T01410099  RH  076%=      5-min Rain = 0
KDO2 162257Z 36013KT 14/10 A2992 RMK A01 T01410100  RH  076%=      5-min Rain = 0
KDO2 162258Z 35012KT 14/10 A2992 RMK A01 T01410101  RH  076%=      5-min Rain = 0
KDO2 162259Z 35012KT 14/10 A2992 RMK A01 T01410101  RH  076%=      5-min Rain = 0
KDO2 162300Z 35011KT 14/10 A2992 RMK A01 T01410101  RH  076%=      5-min Rain = 0
KDO2 162301Z 35013KT 14/10 A2992 RMK A01 T01410100  RH  077%=      5-min Rain = 0
KDO2 162302Z 35012KT 14/10 A2992 RMK A01 T01410100  RH  076%=      5-min Rain = 0
KDO2 162303Z 34012KT 14/10 A2992 RMK A01 T01410100  RH  077%=      5-min Rain = 0
KDO2 162304Z 34013KT 14/10 A2992 RMK A01 T01410099  RH  076%=      5-min Rain = 0
KDO2 162305Z 35011KT 14/10 A2992 RMK A01 T01410100  RH  076%=      5-min Rain = 0
KDO2 162306Z 35013KT 14/10 A2992 RMK A01 T01400100  RH  076%=      5-min Rain = 0
KDO2 162307Z 36015KT 14/10 A2992 RMK A01 T01400099  RH  076%=      5-min Rain = 0
KDO2 162308Z 35015KT 14/10 A2992 RMK A01 T01390098  RH  076%=      5-min Rain = 0
KDO2 162309Z 36014KT 14/10 A2992 RMK A01 T01390098  RH  076%=      5-min Rain = 0
KDO2 162310Z 36013KT 14/10 A2992 RMK A01 T01380098  RH  077%=      5-min Rain = 0
KDO2 162311Z 35011KT 14/10 A2993 RMK A01 T01380098  RH  077%=      5-min Rain = 0
KDO2 162312Z 34013KT 14/10 A2993 RMK A01 T01390098  RH  077%=      5-min Rain = 0
KDO2 162313Z 34013KT 14/10 A2993 RMK A01 T01380097  RH  076%=      5-min Rain = 0
KDO2 162314Z 34011KT 14/10 A2993 RMK A01 T01380097  RH  076%=      5-min Rain = 0
KDO2 162315Z 35012KT 14/10 A2993 RMK A01 T01380097  RH  076%=      5-min Rain = 0
KDO2 162316Z 35012KT 14/10 A2993 RMK A01 T01380097  RH  076%=      5-min Rain = 0
KDO2 162317Z 35014KT 14/10 A2993 RMK A01 T01380097  RH  077%=      5-min Rain = 0
KDO2 162318Z 35014KT 14/10 A2993 RMK A01 T01370096  RH  076%=      5-min Rain = 0
KDO2 162319Z 35014KT 14/10 A2993 RMK A01 T01370097  RH  077%=      5-min Rain = 0
KDO2 162320Z 35012KT 14/10 A2993 RMK A01 T01360096  RH  077%=      5-min Rain = 0
KDO2 162321Z 34013KT 14/10 A2993 RMK A01 T01360097  RH  077%=      5-min Rain = 0
KDO2 162322Z 34013KT 14/10 A2993 RMK A01 T01360096  RH  077%=      5-min Rain = 0
KDO2 162323Z 35013KT 14/10 A2993 RMK A01 T01360096  RH  077%=      5-min Rain = 0
KDO2 162324Z 35013KT 14/10 A2993 RMK A01 T01350097  RH  077%=      5-min Rain = 0
KDO2 162325Z 35012KT 14/10 A2993 RMK A01 T01350097  RH  077%=      5-min Rain = 0
KDO2 162326Z 35013KT 14/10 A2993 RMK A01 T01360097  RH  077%=      5-min Rain = 0
KDO2 162327Z 35013KT 14/10 A2993 RMK A01 T01350096  RH  077%=      5-min Rain = 0
KDO2 162328Z 36014KT 14/10 A2993 RMK A01 T01350096  RH  077%=      5-min Rain = 0
KDO2 162329Z 36014KT 14/10 A2993 RMK A01 T01350095  RH  077%=      5-min Rain = 0
KDO2 162330Z 36014KT 14/10 A2993 RMK A01 T01350095  RH  077%=      5-min Rain = 0
KDO2 162331Z 36015KT 14/09 A2993 RMK A01 T01350094  RH  076%=      5-min Rain = 0
KDO2 162332Z 35012KT 14/09 A2993 RMK A01 T01350094  RH  076%=      5-min Rain = 0
KDO2 162333Z 36013KT 14/09 A2993 RMK A01 T01350094  RH  076%=      5-min Rain = 0
KDO2 162334Z 00015KT 14/09 A2993 RMK A01 T01350093  RH  076%=      5-min Rain = 0
KDO2 162335Z 00014KT 14/09 A2993 RMK A01 T01350093  RH  076%=      5-min Rain = 0
KDO2 162336Z 36014KT 14/09 A2993 RMK A01 T01350093  RH  076%=      5-min Rain = 0
KDO2 162337Z 00015KT 14/09 A2993 RMK A01 T01350093  RH  076%=      5-min Rain = 0
KDO2 162338Z 00013KT 14/09 A2994 RMK A01 T01350093  RH  076%=      5-min Rain = 0
KDO2 162339Z 00012KT 14/09 A2994 RMK A01 T01350093  RH  076%=      5-min Rain = 0
KDO2 162340Z 00012KT 14/09 A2994 RMK A01 T01350093  RH  076%=      5-min Rain = 0
KDO2 162341Z 01012KT 14/09 A2994 RMK A01 T01350093  RH  075%=      5-min Rain = 0
KDO2 162342Z 01012KT 14/09 A2994 RMK A01 T01350092  RH  075%=      5-min Rain = 0
KDO2 162343Z 01013KT 14/09 A2994 RMK A01 T01350092  RH  075%=      5-min Rain = 0
KDO2 162344Z 01012KT 14/09 A2994 RMK A01 T01350092  RH  075%=      5-min Rain = 0
KDO2 162345Z 01013KT 14/09 A2994 RMK A01 T01350092  RH  075%=      5-min Rain = 0
KDO2 162346Z 01011KT 14/09 A2994 RMK A01 T01350093  RH  075%=      5-min Rain = 0
KDO2 162347Z 01010KT 14/09 A2994 RMK A01 T01350093  RH  076%=      5-min Rain = 0
KDO2 162348Z 01009KT 14/09 A2994 RMK A01 T01350093  RH  076%=      5-min Rain = 0
KDO2 162349Z 00009KT 14/09 A2994 RMK A01 T01350093  RH  076%=      5-min Rain = 0
KDO2 162350Z 00009KT 14/09 A2993 RMK A01 T01350093  RH  076%=      5-min Rain = 0
KDO2 162351Z 01009KT 14/09 A2993 RMK A01 T01350094  RH  076%=      5-min Rain = 0
KDO2 162352Z 01008KT 14/09 A2993 RMK A01 T01350094  RH  076%=      5-min Rain = 0
KDO2 162353Z 00009KT 14/09 A2993 RMK A01 T01350094  RH  076%=      5-min Rain = 0
KDO2 162354Z 36009KT 14/09 A2994 RMK A01 T01350094  RH  076%=      5-min Rain = 0
KDO2 162355Z 01010KT 14/09 A2994 RMK A01 T01350094  RH  076%=      5-min Rain = 0
KDO2 162356Z 01010KT 14/09 A2994 RMK A01 T01350094  RH  076%=      5-min Rain = 0
KDO2 162357Z 01011KT 14/09 A2994 RMK A01 T01350093  RH  076%=      5-min Rain = 0
KDO2 162358Z 01009KT 14/09 A2994 RMK A01 T01350093  RH  076%=      5-min Rain = 0
KDO2 162359Z 00009KT 14/09 A2994 RMK A01 T01350094  RH  076%=      5-min Rain = 0
KDO2 170000Z 01011KT 14/09 A2994 RMK A01 T01350094  RH  076%=      5-min Rain = 0
KDO2 170001Z 01011KT 14/09 A2993 RMK A01 T01350093  RH  076%=      5-min Rain = 0
KDO2 170002Z 01011KT 14/09 A2993 RMK A01 T01350093  RH  076%=      5-min Rain = 0
KDO2 170003Z 01010KT 14/09 A2993 RMK A01 T01350093  RH  076%=      5-min Rain = 0
KDO2 170004Z 00010KT 14/09 A2993 RMK A01 T01350093  RH  076%=      5-min Rain = 0
KDO2 170005Z 00011KT 14/09 A2993 RMK A01 T01350092  RH  076%=      5-min Rain = 0
KDO2 170006Z 36011KT 14/09 A2993 RMK A01 T01350093  RH  076%=      5-min Rain = 0
KDO2 170007Z 00009KT 14/09 A2993 RMK A01 T01350093  RH  076%=      5-min Rain = 0
KDO2 170008Z 36010KT 14/09 A2994 RMK A01 T01350093  RH  075%=      5-min Rain = 0
KDO2 170009Z 36010KT 14/09 A2994 RMK A01 T01350093  RH  075%=      5-min Rain = 0
KDO2 170010Z 00010KT 14/09 A2994 RMK A01 T01350093  RH  076%=      5-min Rain = 0
KDO2 170011Z 00010KT 14/09 A2994 RMK A01 T01350093  RH  075%=      5-min Rain = 0
KDO2 170012Z 36009KT 14/09 A2993 RMK A01 T01350093  RH  076%=      5-min Rain = 0
KDO2 170013Z 01007KT 14/09 A2993 RMK A01 T01350093  RH  076%=      5-min Rain = 0
KDO2 170014Z 02008KT 14/09 A2993 RMK A01 T01350094  RH  076%=      5-min Rain = 0
KDO2 170015Z 02007KT 14/09 A2993 RMK A01 T01350093  RH  076%=      5-min Rain = 0
KDO2 170016Z 02008KT 14/09 A2993 RMK A01 T01350093  RH  076%=      5-min Rain = 0
KDO2 170017Z 01008KT 14/09 A2993 RMK A01 T01350093  RH  076%=      5-min Rain = 0
KDO2 170018Z 01009KT 14/09 A2994 RMK A01 T01350094  RH  076%=      5-min Rain = 0
KDO2 170019Z 00010KT 14/09 A2994 RMK A01 T01350091  RH  075%=      5-min Rain = 0
KDO2 170020Z 01009KT 14/09 A2994 RMK A01 T01350091  RH  075%=      5-min Rain = 0
KDO2 170021Z 01010KT 14/09 A2995 RMK A01 T01350091  RH  075%=      5-min Rain = 0
KDO2 170022Z 00013KT 14/09 A2995 RMK A01 T01350091  RH  074%=      5-min Rain = 0
KDO2 170023Z 36015KT 14/09 A2995 RMK A01 T01350089  RH  073%=      5-min Rain = 0
KDO2 170024Z 36014KT 14/09 A2995 RMK A01 T01350089  RH  074%=      5-min Rain = 0
KDO2 170025Z 00014KT 14/09 A2995 RMK A01 T01350089  RH  073%=      5-min Rain = 0
KDO2 170026Z 00012KT 14/09 A2995 RMK A01 T01350089  RH  073%=      5-min Rain = 0
KDO2 170027Z 00013KT 14/09 A2995 RMK A01 T01350089  RH  074%=      5-min Rain = 0
KDO2 170028Z 01013KT 14/09 A2995 RMK A01 T01350090  RH  074%=      5-min Rain = 0
KDO2 170029Z 01012KT 14/09 A2995 RMK A01 T01350090  RH  074%=      5-min Rain = 0
KDO2 170030Z 01011KT 14/09 A2995 RMK A01 T01350090  RH  074%=      5-min Rain = 0
KDO2 170031Z 01010KT 14/09 A2995 RMK A01 T01350090  RH  074%=      5-min Rain = 0
KDO2 170032Z 01012KT 14/09 A2994 RMK A01 T01350091  RH  074%=      5-min Rain = 0
KDO2 170033Z 01012KT 14/09 A2994 RMK A01 T01350090  RH  074%=      5-min Rain = 0
KDO2 170034Z 01011KT 14/09 A2994 RMK A01 T01350090  RH  074%=      5-min Rain = 0
KDO2 170035Z 01010KT 14/09 A2994 RMK A01 T01350090  RH  074%=      5-min Rain = 0
KDO2 170036Z 01011KT 14/09 A2994 RMK A01 T01350091  RH  075%=      5-min Rain = 0
KDO2 170037Z 01012KT 14/09 A2994 RMK A01 T01350091  RH  075%=      5-min Rain = 0
KDO2 170038Z 01010KT 14/09 A2994 RMK A01 T01350091  RH  075%=      5-min Rain = 0
KDO2 170039Z 00009KT 14/09 A2994 RMK A01 T01350091  RH  075%=      5-min Rain = 0
KDO2 170040Z 01009KT 13/09 A2994 RMK A01 T01340091  RH  075%=      5-min Rain = 0
KDO2 170041Z 01010KT 14/09 A2994 RMK A01 T01350090  RH  075%=      5-min Rain = 0
KDO2 170042Z 01010KT 13/09 A2994 RMK A01 T01340090  RH  075%=      5-min Rain = 0
KDO2 170043Z 00009KT 13/09 A2994 RMK A01 T01340091  RH  075%=      5-min Rain = 0
KDO2 170044Z 01008KT 13/09 A2994 RMK A01 T01340091  RH  075%=      5-min Rain = 0
KDO2 170045Z 01009KT 13/09 A2994 RMK A01 T01340091  RH  075%=      5-min Rain = 0
KDO2 170046Z 00012KT 13/09 A2995 RMK A01 T01340091  RH  075%=      5-min Rain = 0
KDO2 170047Z 00014KT 13/09 A2995 RMK A01 T01340090  RH  074%=      5-min Rain = 0
KDO2 170048Z 00012KT 13/09 A2995 RMK A01 T01340090  RH  074%=      5-min Rain = 0
KDO2 170049Z 00011KT 13/09 A2995 RMK A01 T01340091  RH  075%=      5-min Rain = 0
KDO2 170050Z 00011KT 13/09 A2995 RMK A01 T01340090  RH  075%=      5-min Rain = 0
KDO2 170051Z 36011KT 13/09 A2994 RMK A01 T01340090  RH  075%=      5-min Rain = 0
KDO2 170052Z 00013KT 13/09 A2995 RMK A01 T01340090  RH  075%=      5-min Rain = 0
KDO2 170053Z 00012KT 13/09 A2995 RMK A01 T01340090  RH  075%=      5-min Rain = 0
KDO2 170054Z 00013KT 13/09 A2995 RMK A01 T01340090  RH  075%=      5-min Rain = 0
KDO2 170055Z 01011KT 13/09 A2995 RMK A01 T01340090  RH  075%=      5-min Rain = 0
KDO2 170056Z 00010KT 13/09 A2995 RMK A01 T01340091  RH  075%=      5-min Rain = 0
KDO2 170057Z 36010KT 13/09 A2995 RMK A01 T01340090  RH  075%=      5-min Rain = 0
KDO2 170058Z 00011KT 13/09 A2995 RMK A01 T01340090  RH  075%=      5-min Rain = 0
KDO2 170059Z 01011KT 13/09 A2995 RMK A01 T01340090  RH  075%=      5-min Rain = 0
KDO2 170100Z 01009KT 13/09 A2995 RMK A01 T01340090  RH  075%=      5-min Rain = 0
KDO2 170101Z 01011KT 13/09 A2995 RMK A01 T01340090  RH  075%=      5-min Rain = 0
KDO2 170102Z 01011KT 13/09 A2995 RMK A01 T01340090  RH  075%=      5-min Rain = 0
KDO2 170103Z 01010KT 13/09 A2995 RMK A01 T01340091  RH  075%=      5-min Rain = 0
KDO2 170104Z 01009KT 13/09 A2995 RMK A01 T01340091  RH  075%=      5-min Rain = 0
KDO2 170105Z 01009KT 13/09 A2996 RMK A01 T01340091  RH  075%=      5-min Rain = 0
KDO2 170106Z 00007KT 13/09 A2996 RMK A01 T01340091  RH  075%=      5-min Rain = 0
KDO2 170107Z 00007KT 13/09 A2996 RMK A01 T01340092  RH  076%=      5-min Rain = 0
KDO2 170108Z 00010KT 13/09 A2996 RMK A01 T01340091  RH  075%=      5-min Rain = 0
KDO2 170109Z 36010KT 13/09 A2996 RMK A01 T01340090  RH  075%=      5-min Rain = 0
KDO2 170110Z 36010KT 13/09 A2996 RMK A01 T01340090  RH  075%=      5-min Rain = 0
KDO2 170111Z 36009KT 13/09 A2996 RMK A01 T01340090  RH  075%=      5-min Rain = 0
KDO2 170112Z 01008KT 13/09 A2996 RMK A01 T01340091  RH  075%=      5-min Rain = 0
KDO2 170113Z 36007KT 13/09 A2996 RMK A01 T01340091  RH  075%=      5-min Rain = 0
KDO2 170114Z 35007KT 13/09 A2996 RMK A01 T01330091  RH  075%=      5-min Rain = 0
KDO2 170115Z 35007KT 13/09 A2997 RMK A01 T01330091  RH  075%=      5-min Rain = 0
KDO2 170116Z 35006KT 13/09 A2997 RMK A01 T01330091  RH  075%=      5-min Rain = 0
KDO2 170117Z 35005KT 13/09 A2997 RMK A01 T01330091  RH  076%=      5-min Rain = 0
KDO2 170118Z 35006KT 13/09 A2997 RMK A01 T01330092  RH  076%=      5-min Rain = 0
KDO2 170119Z 36006KT 13/09 A2997 RMK A01 T01330091  RH  076%=      5-min Rain = 0
KDO2 170120Z 36005KT 13/09 A2997 RMK A01 T01330091  RH  076%=      5-min Rain = 0
KDO2 170121Z 35005KT 13/09 A2996 RMK A01 T01330092  RH  076%=      5-min Rain = 0
KDO2 170122Z 00007KT 13/09 A2996 RMK A01 T01330092  RH  076%=      5-min Rain = 0
KDO2 170123Z 01008KT 13/09 A2996 RMK A01 T01330091  RH  076%=      5-min Rain = 0
KDO2 170124Z 00007KT 13/09 A2996 RMK A01 T01330092  RH  076%=      5-min Rain = 0
KDO2 170125Z 00007KT 13/09 A2996 RMK A01 T01330092  RH  076%=      5-min Rain = 0
KDO2 170126Z 36009KT 13/09 A2996 RMK A01 T01320091  RH  076%=      5-min Rain = 0
KDO2 170127Z 36010KT 13/09 A2996 RMK A01 T01320091  RH  076%=      5-min Rain = 0
KDO2 170128Z 35009KT 13/09 A2996 RMK A01 T01320090  RH  076%=      5-min Rain = 0
KDO2 170129Z 36009KT 13/09 A2996 RMK A01 T01330091  RH  076%=      5-min Rain = 0
KDO2 170130Z 35009KT 13/09 A2996 RMK A01 T01320091  RH  076%=      5-min Rain = 0
KDO2 170131Z 00008KT 13/09 A2996 RMK A01 T01320091  RH  076%=      5-min Rain = 0
KDO2 170132Z 36007KT 13/09 A2996 RMK A01 T01320091  RH  076%=      5-min Rain = 0
KDO2 170133Z 36008KT 13/09 A2997 RMK A01 T01320091  RH  076%=      5-min Rain = 0
KDO2 170134Z 36007KT 13/09 A2996 RMK A01 T01320092  RH  076%=      5-min Rain = 0
KDO2 170135Z 36007KT 13/09 A2997 RMK A01 T01320092  RH  076%=      5-min Rain = 0
KDO2 170136Z 36007KT 13/09 A2997 RMK A01 T01320091  RH  076%=      5-min Rain = 0
KDO2 170137Z 35008KT 13/09 A2997 RMK A01 T01320091  RH  076%=      5-min Rain = 0
KDO2 170138Z 36008KT 13/09 A2997 RMK A01 T01320091  RH  076%=      5-min Rain = 0
KDO2 170139Z 36008KT 13/09 A2997 RMK A01 T01320091  RH  076%=      5-min Rain = 0
KDO2 170140Z 35007KT 13/09 A2997 RMK A01 T01320091  RH  076%=      5-min Rain = 0
KDO2 170141Z 34008KT 13/09 A2997 RMK A01 T01320091  RH  076%=      5-min Rain = 0
KDO2 170142Z 35009KT 13/09 A2998 RMK A01 T01320091  RH  076%=      5-min Rain = 0
KDO2 170143Z 35008KT 13/09 A2998 RMK A01 T01320091  RH  076%=      5-min Rain = 0
KDO2 170144Z 35007KT 13/09 A2998 RMK A01 T01320091  RH  076%=      5-min Rain = 0
KDO2 170145Z 35008KT 13/09 A2998 RMK A01 T01320092  RH  076%=      5-min Rain = 0
KDO2 170146Z 35010KT 13/09 A2998 RMK A01 T01320091  RH  076%=      5-min Rain = 0
KDO2 170147Z 35009KT 13/09 A2998 RMK A01 T01320091  RH  076%=      5-min Rain = 0
KDO2 170148Z 35008KT 13/09 A2998 RMK A01 T01320092  RH  076%=      5-min Rain = 0
KDO2 170149Z 35008KT 13/09 A2998 RMK A01 T01320092  RH  076%=      5-min Rain = 0
KDO2 170150Z 36008KT 13/09 A2998 RMK A01 T01330092  RH  076%=      5-min Rain = 0
KDO2 170151Z 35008KT 13/09 A2998 RMK A01 T01320092  RH  076%=      5-min Rain = 0
KDO2 170152Z 35008KT 13/09 A2998 RMK A01 T01320092  RH  076%=      5-min Rain = 0
KDO2 170153Z 34008KT 13/09 A2998 RMK A01 T01320092  RH  076%=      5-min Rain = 0
KDO2 170154Z 35008KT 13/09 A2998 RMK A01 T01320092  RH  076%=      5-min Rain = 0
KDO2 170155Z 34009KT 13/09 A2998 RMK A01 T01320092  RH  076%=      5-min Rain = 0
KDO2 170156Z 35008KT 13/09 A2999 RMK A01 T01320091  RH  076%=      5-min Rain = 0
KDO2 170157Z 35007KT 13/09 A2999 RMK A01 T01330092  RH  076%=      5-min Rain = 0
KDO2 170158Z 34010KT 13/09 A2999 RMK A01 T01330092  RH  077%=      5-min Rain = 0
KDO2 170159Z 35011KT 13/09 A2999 RMK A01 T01320092  RH  076%=      5-min Rain = 0
KDO2 170200Z 35011KT 13/09 A2999 RMK A01 T01320091  RH  076%=      5-min Rain = 0
KDO2 170201Z 35010KT 13/09 A2999 RMK A01 T01320091  RH  076%=      5-min Rain = 0
KDO2 170202Z 35009KT 13/09 A2999 RMK A01 T01330091  RH  076%=      5-min Rain = 0
KDO2 170203Z 35009KT 13/09 A2999 RMK A01 T01320091  RH  076%=      5-min Rain = 0
KDO2 170204Z 34009KT 13/09 A2999 RMK A01 T01320092  RH  076%=      5-min Rain = 0
KDO2 170205Z 35011KT 13/09 A2999 RMK A01 T01320092  RH  076%=      5-min Rain = 0
KDO2 170206Z 35011KT 13/09 A2999 RMK A01 T01320091  RH  076%=      5-min Rain = 0
KDO2 170207Z 35010KT 13/09 A2999 RMK A01 T01330091  RH  076%=      5-min Rain = 0
KDO2 170208Z 35009KT 13/09 A2999 RMK A01 T01330091  RH  076%=      5-min Rain = 0
KDO2 170209Z 35011KT 13/09 A2999 RMK A01 T01330092  RH  076%=      5-min Rain = 0
KDO2 170210Z 35012KT 13/09 A2999 RMK A01 T01330091  RH  076%=      5-min Rain = 0
KDO2 170211Z 35011KT 13/09 A2999 RMK A01 T01330091  RH  075%=      5-min Rain = 0
KDO2 170212Z 35011KT 13/09 A2999 RMK A01 T01330091  RH  076%=      5-min Rain = 0
KDO2 170213Z 35010KT 13/09 A2999 RMK A01 T01330091  RH  076%=      5-min Rain = 0
KDO2 170214Z 35011KT 13/09 A2999 RMK A01 T01330091  RH  076%=      5-min Rain = 0
KDO2 170215Z 36010KT 13/09 A2999 RMK A01 T01330091  RH  076%=      5-min Rain = 0
KDO2 170216Z 35010KT 13/09 A2999 RMK A01 T01330091  RH  076%=      5-min Rain = 0
KDO2 170217Z 36008KT 13/09 A2999 RMK A01 T01330092  RH  076%=      5-min Rain = 0
KDO2 170218Z 35009KT 13/09 A2999 RMK A01 T01330092  RH  076%=      5-min Rain = 0
KDO2 170219Z 36009KT 13/09 A2999 RMK A01 T01330092  RH  076%=      5-min Rain = 0
KDO2 170220Z 35008KT 13/09 A30 RMK A01 T01330092  RH  076%=      5-min Rain = 0
KDO2 170221Z 35009KT 13/09 A30 RMK A01 T01330092  RH  076%=      5-min Rain = 0
KDO2 170222Z 35008KT 13/09 A30 RMK A01 T01330092  RH  076%=      5-min Rain = 0
KDO2 170223Z 35007KT 13/09 A30 RMK A01 T01330092  RH  076%=      5-min Rain = 0
KDO2 170224Z 34007KT 13/09 A30 RMK A01 T01340092  RH  076%=      5-min Rain = 0
KDO2 170225Z 35008KT 13/09 A3001 RMK A01 T01330092  RH  076%=      5-min Rain = 0
KDO2 170226Z 34010KT 13/09 A3001 RMK A01 T01330091  RH  076%=      5-min Rain = 0
KDO2 170227Z 35010KT 13/09 A3001 RMK A01 T01340091  RH  075%=      5-min Rain = 0
KDO2 170228Z 35010KT 13/09 A3001 RMK A01 T01340091  RH  075%=      5-min Rain = 0
KDO2 170229Z 35008KT 13/09 A3001 RMK A01 T01340092  RH  076%=      5-min Rain = 0
KDO2 170230Z 35009KT 13/09 A3001 RMK A01 T01340092  RH  076%=      5-min Rain = 0
KDO2 170231Z 34009KT 13/09 A3001 RMK A01 T01340091  RH  076%=      5-min Rain = 0
KDO2 170232Z 35011KT 13/09 A3001 RMK A01 T01340091  RH  075%=      5-min Rain = 0
KDO2 170233Z 35013KT 13/09 A3001 RMK A01 T01340090  RH  075%=      5-min Rain = 0
KDO2 170234Z 35010KT 13/09 A3001 RMK A01 T01340090  RH  075%=      5-min Rain = 0
KDO2 170235Z 35010KT 13/09 A3001 RMK A01 T01340090  RH  075%=      5-min Rain = 0
KDO2 170236Z 35012KT 13/09 A3001 RMK A01 T01340090  RH  075%=      5-min Rain = 0
KDO2 170237Z 36012KT 13/09 A3001 RMK A01 T01340088  RH  074%=      5-min Rain = 0
KDO2 170238Z 35010KT 13/09 A3001 RMK A01 T01340089  RH  074%=      5-min Rain = 0
KDO2 170239Z 35010KT 13/09 A3001 RMK A01 T01340089  RH  074%=      5-min Rain = 0
KDO2 170240Z 35012KT 13/09 A3001 RMK A01 T01340089  RH  074%=      5-min Rain = 0
KDO2 170241Z 35012KT 13/09 A3001 RMK A01 T01340088  RH  073%=      5-min Rain = 0
KDO2 170242Z 35012KT 13/09 A3001 RMK A01 T01340087  RH  073%=      5-min Rain = 0
KDO2 170243Z 36010KT 13/09 A3001 RMK A01 T01340088  RH  074%=      5-min Rain = 0
KDO2 170244Z 36011KT 13/09 A3001 RMK A01 T01340089  RH  074%=      5-min Rain = 0
KDO2 170245Z 35011KT 13/09 A3001 RMK A01 T01340088  RH  074%=      5-min Rain = 0
KDO2 170246Z 36010KT 13/09 A3001 RMK A01 T01340088  RH  073%=      5-min Rain = 0
KDO2 170247Z 00011KT 13/09 A3001 RMK A01 T01340088  RH  074%=      5-min Rain = 0
KDO2 170248Z 35009KT 13/09 A3001 RMK A01 T01340088  RH  074%=      5-min Rain = 0
KDO2 170249Z 00009KT 13/09 A3001 RMK A01 T01340088  RH  074%=      5-min Rain = 0
KDO2 170250Z 00009KT 13/09 A3001 RMK A01 T01340088  RH  074%=      5-min Rain = 0
KDO2 170251Z 00007KT 13/09 A3002 RMK A01 T01340088  RH  074%=      5-min Rain = 0
KDO2 170252Z 00007KT 13/09 A3002 RMK A01 T01340088  RH  074%=      5-min Rain = 0
KDO2 170253Z 01009KT 13/09 A3002 RMK A01 T01340089  RH  074%=      5-min Rain = 0
KDO2 170254Z 35009KT 13/09 A3002 RMK A01 T01340088  RH  074%=      5-min Rain = 0
KDO2 170255Z 35008KT 13/09 A3002 RMK A01 T01340088  RH  074%=      5-min Rain = 0
KDO2 170256Z 36008KT 13/09 A3002 RMK A01 T01340088  RH  074%=      5-min Rain = 0
KDO2 170257Z 35007KT 13/09 A3003 RMK A01 T01340088  RH  074%=      5-min Rain = 0
KDO2 170258Z 36007KT 13/09 A3003 RMK A01 T01340088  RH  074%=      5-min Rain = 0
KDO2 170259Z 35007KT 13/09 A3003 RMK A01 T01340089  RH  074%=      5-min Rain = 0
KDO2 170300Z 35007KT 13/09 A3003 RMK A01 T01340089  RH  074%=      5-min Rain = 0
KDO2 170301Z 00008KT 13/09 A3003 RMK A01 T01330088  RH  074%=      5-min Rain = 0
KDO2 170302Z 36009KT 13/09 A3003 RMK A01 T01330088  RH  074%=      5-min Rain = 0
KDO2 170303Z 35010KT 13/09 A3003 RMK A01 T01330087  RH  073%=      5-min Rain = 0
KDO2 170304Z 36009KT 13/09 A3003 RMK A01 T01330087  RH  073%=      5-min Rain = 0
KDO2 170305Z 01009KT 13/09 A3003 RMK A01 T01330087  RH  073%=      5-min Rain = 0
KDO2 170306Z 00011KT 13/09 A3003 RMK A01 T01330087  RH  073%=      5-min Rain = 0
KDO2 170307Z 00010KT 13/09 A3003 RMK A01 T01330087  RH  073%=      5-min Rain = 0
KDO2 170308Z 00010KT 13/09 A3003 RMK A01 T01330087  RH  073%=      5-min Rain = 0
KDO2 170309Z 00009KT 13/09 A3003 RMK A01 T01330087  RH  073%=      5-min Rain = 0
KDO2 170310Z 00009KT 13/09 A3003 RMK A01 T01330087  RH  073%=      5-min Rain = 0
KDO2 170311Z 00009KT 13/09 A3003 RMK A01 T01330087  RH  073%=      5-min Rain = 0
KDO2 170312Z 36008KT 13/09 A3003 RMK A01 T01330086  RH  073%=      5-min Rain = 0
KDO2 170313Z 00008KT 13/09 A3003 RMK A01 T01330087  RH  073%=      5-min Rain = 0
KDO2 170314Z 01010KT 13/09 A3003 RMK A01 T01330087  RH  073%=      5-min Rain = 0
KDO2 170315Z 01010KT 13/09 A3003 RMK A01 T01340086  RH  073%=      5-min Rain = 0
KDO2 170316Z 01012KT 13/09 A3003 RMK A01 T01330085  RH  072%=      5-min Rain = 0
KDO2 170317Z 01009KT 13/09 A3003 RMK A01 T01340085  RH  072%=      5-min Rain = 0
KDO2 170318Z 01010KT 13/09 A3003 RMK A01 T01340086  RH  073%=      5-min Rain = 0
KDO2 170319Z 00012KT 13/09 A3003 RMK A01 T01340086  RH  073%=      5-min Rain = 0
KDO2 170320Z 00012KT 13/09 A3003 RMK A01 T01340085  RH  072%=      5-min Rain = 0
KDO2 170321Z 01012KT 13/09 A3003 RMK A01 T01340085  RH  072%=      5-min Rain = 0
KDO2 170322Z 00012KT 13/09 A3003 RMK A01 T01340085  RH  072%=      5-min Rain = 0
KDO2 170323Z 01010KT 13/09 A3003 RMK A01 T01340086  RH  072%=      5-min Rain = 0
KDO2 170324Z 01009KT 13/09 A3003 RMK A01 T01330086  RH  073%=      5-min Rain = 0
KDO2 170325Z 00013KT 13/09 A3002 RMK A01 T01330086  RH  073%=      5-min Rain = 0
KDO2 170326Z 00017KT 13/08 A3002 RMK A01 T01330083  RH  072%=      5-min Rain = 0
KDO2 170327Z 01014KT 13/08 A3002 RMK A01 T01330082  RH  071%=      5-min Rain = 0
KDO2 170328Z 01016KT 13/08 A3002 RMK A01 T01330081  RH  071%=      5-min Rain = 0
KDO2 170329Z 02015KT 13/08 A3002 RMK A01 T01340080  RH  070%=      5-min Rain = 0
KDO2 170330Z 01012KT 13/08 A3003 RMK A01 T01340082  RH  071%=      5-min Rain = 0
KDO2 170331Z 00012KT 13/08 A3003 RMK A01 T01340083  RH  071%=      5-min Rain = 0
KDO2 170332Z 01011KT 13/08 A3003 RMK A01 T01340081  RH  071%=      5-min Rain = 0
KDO2 170333Z 01015KT 13/08 A3003 RMK A01 T01340081  RH  070%=      5-min Rain = 0
KDO2 170334Z 02013KT 13/08 A3003 RMK A01 T01330080  RH  070%=      5-min Rain = 0
KDO2 170335Z 01015KT 13/08 A3003 RMK A01 T01330080  RH  070%=      5-min Rain = 0
KDO2 170336Z 01014KT 13/08 A3003 RMK A01 T01330080  RH  070%=      5-min Rain = 0
KDO2 170337Z 01014KT 13/08 A3003 RMK A01 T01330078  RH  069%=      5-min Rain = 0
KDO2 170338Z 01013G18KT 13/08 A3003 RMK A01 T01330078  RH  069%=      5-min Rain = 0
KDO2 170339Z 01018KT 13/08 A3003 RMK A01 T01330076  RH  068%=      5-min Rain = 0
KDO2 170340Z 01015KT 13/07 A3003 RMK A01 T01330073  RH  067%=      5-min Rain = 0
KDO2 170341Z 01015KT 13/07 A3003 RMK A01 T01330073  RH  067%=      5-min Rain = 0
KDO2 170342Z 00014KT 13/07 A3003 RMK A01 T01330074  RH  067%=      5-min Rain = 0
KDO2 170343Z 01017KT 13/07 A3003 RMK A01 T01330072  RH  067%=      5-min Rain = 0
KDO2 170344Z 01019KT 13/07 A3003 RMK A01 T01320070  RH  066%=      5-min Rain = 0
KDO2 170345Z 01017KT 13/07 A3003 RMK A01 T01320069  RH  065%=      5-min Rain = 0
KDO2 170346Z 01014KT 13/07 A3003 RMK A01 T01320070  RH  066%=      5-min Rain = 0
KDO2 170347Z 01016KT 13/07 A3003 RMK A01 T01320070  RH  066%=      5-min Rain = 0
KDO2 170348Z 01013KT 13/07 A3003 RMK A01 T01320070  RH  066%=      5-min Rain = 0
KDO2 170349Z 01016KT 13/07 A3003 RMK A01 T01320070  RH  066%=      5-min Rain = 0
KDO2 170350Z 01015KT 13/07 A3003 RMK A01 T01310068  RH  066%=      5-min Rain = 0
KDO2 170351Z 01014KT 13/07 A3003 RMK A01 T01310069  RH  066%=      5-min Rain = 0
KDO2 170352Z 01016KT 13/07 A3003 RMK A01 T01320070  RH  066%=      5-min Rain = 0
KDO2 170353Z 01015KT 13/07 A3004 RMK A01 T01310069  RH  066%=      5-min Rain = 0
KDO2 170354Z 01019KT 13/07 A3004 RMK A01 T01310068  RH  065%=      5-min Rain = 0
KDO2 170355Z 01017KT 13/07 A3004 RMK A01 T01320067  RH  065%=      5-min Rain = 0
KDO2 170356Z 01015KT 13/07 A3004 RMK A01 T01310068  RH  065%=      5-min Rain = 0
KDO2 170357Z 01017KT 13/07 A3004 RMK A01 T01310068  RH  066%=      5-min Rain = 0
KDO2 170358Z 01018KT 13/07 A3004 RMK A01 T01320068  RH  065%=      5-min Rain = 0
KDO2 170359Z 01019KT 13/07 A3004 RMK A01 T01310067  RH  065%=      5-min Rain = 0
KDO2 170400Z 01016KT 13/07 A3004 RMK A01 T01310066  RH  064%=      5-min Rain = 0
KDO2 170401Z 01013KT 13/07 A3004 RMK A01 T01310067  RH  065%=      5-min Rain = 0
KDO2 170402Z 01016KT 13/07 A3004 RMK A01 T01310067  RH  065%=      5-min Rain = 0
KDO2 170403Z 01015KT 13/07 A3004 RMK A01 T01310066  RH  065%=      5-min Rain = 0
KDO2 170404Z 01015KT 13/07 A3004 RMK A01 T01310067  RH  065%=      5-min Rain = 0
KDO2 170405Z 01013KT 13/07 A3004 RMK A01 T01300067  RH  065%=      5-min Rain = 0
KDO2 170406Z 01014KT 13/07 A3004 RMK A01 T01300067  RH  066%=      5-min Rain = 0
KDO2 170407Z 01014KT 13/07 A3004 RMK A01 T01300066  RH  065%=      5-min Rain = 0
KDO2 170408Z 01014KT 13/07 A3004 RMK A01 T01300066  RH  065%=      5-min Rain = 0
KDO2 170409Z 00017KT 13/06 A3004 RMK A01 T01300064  RH  064%=      5-min Rain = 0
KDO2 170410Z 00019KT 13/06 A3004 RMK A01 T01300062  RH  063%=      5-min Rain = 0
KDO2 170411Z 01018KT 13/06 A3005 RMK A01 T01300062  RH  063%=      5-min Rain = 0
KDO2 170412Z 01015KT 13/06 A3005 RMK A01 T01300062  RH  063%=      5-min Rain = 0
KDO2 170413Z 00015KT 13/06 A3005 RMK A01 T01290062  RH  064%=      5-min Rain = 0
KDO2 170414Z 00015KT 13/06 A3005 RMK A01 T01290062  RH  064%=      5-min Rain = 0
KDO2 170415Z 01014KT 13/06 A3005 RMK A01 T01280061  RH  064%=      5-min Rain = 0
KDO2 170416Z 01015KT 13/06 A3005 RMK A01 T01270061  RH  064%=      5-min Rain = 0
KDO2 170417Z 00014KT 13/06 A3005 RMK A01 T01270061  RH  064%=      5-min Rain = 0
KDO2 170418Z 00014KT 13/06 A3005 RMK A01 T01270061  RH  064%=      5-min Rain = 0
KDO2 170419Z 01013KT 13/06 A3005 RMK A01 T01260061  RH  065%=      5-min Rain = 0
KDO2 170420Z 00013KT 13/06 A3005 RMK A01 T01250061  RH  065%=      5-min Rain = 0
KDO2 170421Z 00014KT 13/06 A3005 RMK A01 T01250061  RH  065%=      5-min Rain = 0
KDO2 170422Z 00014KT 13/06 A3005 RMK A01 T01250062  RH  065%=      5-min Rain = 0
KDO2 170423Z 01011KT 12/06 A3005 RMK A01 T01240061  RH  066%=      5-min Rain = 0
KDO2 170424Z 01011KT 12/06 A3005 RMK A01 T01230061  RH  066%=      5-min Rain = 0
KDO2 170425Z 01012KT 12/06 A3005 RMK A01 T01230061  RH  066%=      5-min Rain = 0
KDO2 170426Z 01015KT 12/06 A3005 RMK A01 T01220061  RH  066%=      5-min Rain = 0
KDO2 170427Z 00014KT 12/06 A3005 RMK A01 T01220060  RH  066%=      5-min Rain = 0
KDO2 170428Z 00015KT 12/06 A3005 RMK A01 T01220060  RH  066%=      5-min Rain = 0
KDO2 170429Z 01015KT 12/06 A3005 RMK A01 T01220060  RH  066%=      5-min Rain = 0
KDO2 170430Z 01016KT 12/06 A3005 RMK A01 T01220060  RH  066%=      5-min Rain = 0
KDO2 170431Z 01016KT 12/06 A3005 RMK A01 T01220060  RH  066%=      5-min Rain = 0
KDO2 170432Z 01016KT 12/06 A3005 RMK A01 T01210060  RH  066%=      5-min Rain = 0
KDO2 170433Z 01020KT 12/06 A3005 RMK A01 T01210060  RH  067%=      5-min Rain = 0
KDO2 170434Z 01019KT 12/06 A3005 RMK A01 T01210061  RH  067%=      5-min Rain = 0
KDO2 170435Z 02016KT 12/06 A3005 RMK A01 T01210061  RH  067%=      5-min Rain = 0
KDO2 170436Z 01018KT 12/06 A3005 RMK A01 T01200062  RH  067%=      5-min Rain = 0
KDO2 170437Z 01017KT 12/06 A3004 RMK A01 T01200062  RH  068%=      5-min Rain = 0
KDO2 170438Z 02017KT 12/06 A3004 RMK A01 T01190062  RH  068%=      5-min Rain = 0
KDO2 170439Z 02017KT 12/06 A3004 RMK A01 T01190063  RH  068%=      5-min Rain = 0
KDO2 170440Z 02015KT 12/06 A3004 RMK A01 T01190063  RH  068%=      5-min Rain = 0
KDO2 170441Z 02014KT 12/06 A3004 RMK A01 T01180063  RH  069%=      5-min Rain = 0
KDO2 170442Z 02015KT 12/06 A3004 RMK A01 T01170063  RH  070%=      5-min Rain = 0
KDO2 170443Z 01015KT 12/06 A3004 RMK A01 T01160063  RH  070%=      5-min Rain = 0
KDO2 170444Z 01016KT 12/06 A3005 RMK A01 T01160063  RH  070%=      5-min Rain = 0
KDO2 170445Z 02016KT 12/06 A3005 RMK A01 T01170063  RH  070%=      5-min Rain = 0
KDO2 170446Z 01014KT 12/06 A3005 RMK A01 T01170063  RH  070%=      5-min Rain = 0
KDO2 170447Z 01013KT 12/06 A3005 RMK A01 T01170064  RH  070%=      5-min Rain = 0
KDO2 170448Z 01013KT 12/06 A3005 RMK A01 T01160064  RH  070%=      5-min Rain = 0
KDO2 170449Z 01012KT 12/06 A3005 RMK A01 T01160063  RH  070%=      5-min Rain = 0
KDO2 170450Z 01011KT 12/06 A3005 RMK A01 T01160063  RH  070%=      5-min Rain = 0
KDO2 170451Z 01011G16KT 12/06 A3005 RMK A01 T01160063  RH  070%=      5-min Rain = 0
KDO2 170452Z 01014KT 12/06 A3005 RMK A01 T01160063  RH  070%=      5-min Rain = 0
KDO2 170453Z 01013KT 12/06 A3005 RMK A01 T01160063  RH  070%=      5-min Rain = 0
KDO2 170454Z 00015KT 12/06 A3005 RMK A01 T01160063  RH  070%=      5-min Rain = 0
KDO2 170455Z 01017KT 12/06 A3005 RMK A01 T01160063  RH  070%=      5-min Rain = 0
KDO2 170456Z 01013KT 12/06 A3005 RMK A01 T01160063  RH  070%=      5-min Rain = 0
KDO2 170457Z 00014KT 12/06 A3005 RMK A01 T01160063  RH  070%=      5-min Rain = 0
KDO2 170458Z 01015KT 12/06 A3005 RMK A01 T01150064  RH  070%=      5-min Rain = 0
KDO2 170459Z 01015KT 12/06 A3005 RMK A01 T01150063  RH  071%=      5-min Rain = 0

Page generated in 0.0656 seconds.